Observation data for Hefner on 11/19/2019      Previous  Date       Current Mesonet Observations  Soil Data  Daily Summary Page  Observations in Plain Language
KHE1 190600Z 23008KT 08/04 A2993 RMK A01 T00840038  RH  073%=      5-min Rain = 0
KHE1 190601Z 23008KT 08/04 A2993 RMK A01 T00840038  RH  073%=      5-min Rain = 0
KHE1 190602Z 23008KT 08/04 A2993 RMK A01 T00830038  RH  073%=      5-min Rain = 0
KHE1 190603Z 23008KT 08/04 A2993 RMK A01 T00830038  RH  073%=      5-min Rain = 0
KHE1 190604Z 23008KT 08/04 A2993 RMK A01 T00820038  RH  073%=      5-min Rain = 0
KHE1 190605Z 23008KT 08/04 A2993 RMK A01 T00820038  RH  073%=      5-min Rain = 0
KHE1 190606Z 23008KT 08/04 A2993 RMK A01 T00820038  RH  074%=      5-min Rain = 0
KHE1 190607Z 23008KT 08/04 A2993 RMK A01 T00810037  RH  074%=      5-min Rain = 0
KHE1 190608Z 23008KT 08/04 A2993 RMK A01 T00810037  RH  074%=      5-min Rain = 0
KHE1 190609Z 23008KT 08/04 A2993 RMK A01 T00800037  RH  074%=      5-min Rain = 0
KHE1 190610Z 23008KT 08/04 A2993 RMK A01 T00800037  RH  074%=      5-min Rain = 0
KHE1 190611Z 23008KT 08/04 A2993 RMK A01 T00800037  RH  074%=      5-min Rain = 0
KHE1 190612Z 23008KT 08/04 A2993 RMK A01 T00810037  RH  074%=      5-min Rain = 0
KHE1 190613Z 23008KT 08/04 A2993 RMK A01 T00800037  RH  074%=      5-min Rain = 0
KHE1 190614Z 23008KT 08/04 A2993 RMK A01 T00800038  RH  075%=      5-min Rain = 0
KHE1 190615Z 23008KT 08/04 A2993 RMK A01 T00790038  RH  075%=      5-min Rain = 0
KHE1 190616Z 23008KT 08/04 A2993 RMK A01 T00790037  RH  075%=      5-min Rain = 0
KHE1 190617Z 23008KT 08/04 A2993 RMK A01 T00780037  RH  075%=      5-min Rain = 0
KHE1 190618Z 23008KT 08/04 A2993 RMK A01 T00780037  RH  075%=      5-min Rain = 0
KHE1 190619Z 23008KT 08/04 A2993 RMK A01 T00780037  RH  075%=      5-min Rain = 0
KHE1 190620Z 22008KT 08/04 A2993 RMK A01 T00780037  RH  075%=      5-min Rain = 0
KHE1 190621Z 22008KT 08/04 A2993 RMK A01 T00790037  RH  075%=      5-min Rain = 0
KHE1 190622Z 23008KT 08/04 A2993 RMK A01 T00790037  RH  075%=      5-min Rain = 0
KHE1 190623Z 23008KT 08/04 A2993 RMK A01 T00800037  RH  074%=      5-min Rain = 0
KHE1 190624Z 23008KT 08/04 A2993 RMK A01 T00800037  RH  074%=      5-min Rain = 0
KHE1 190625Z 23007KT 08/04 A2993 RMK A01 T00800037  RH  074%=      5-min Rain = 0
KHE1 190626Z 23007KT 08/04 A2993 RMK A01 T00790037  RH  074%=      5-min Rain = 0
KHE1 190627Z 23007KT 08/04 A2993 RMK A01 T00790037  RH  075%=      5-min Rain = 0
KHE1 190628Z 23007KT 08/04 A2993 RMK A01 T00790037  RH  074%=      5-min Rain = 0
KHE1 190629Z 23007KT 08/04 A2993 RMK A01 T00790037  RH  074%=      5-min Rain = 0
KHE1 190630Z 23007KT 08/04 A2993 RMK A01 T00790036  RH  074%=      5-min Rain = 0
KHE1 190631Z 23007KT 08/04 A2993 RMK A01 T00800036  RH  074%=      5-min Rain = 0
KHE1 190632Z 23007KT 08/04 A2993 RMK A01 T00810036  RH  074%=      5-min Rain = 0
KHE1 190633Z 23007KT 08/04 A2993 RMK A01 T00800036  RH  074%=      5-min Rain = 0
KHE1 190634Z 23007KT 08/04 A2993 RMK A01 T00800036  RH  074%=      5-min Rain = 0
KHE1 190635Z 23007KT 08/04 A2993 RMK A01 T00800036  RH  074%=      5-min Rain = 0
KHE1 190636Z 23007KT 08/04 A2993 RMK A01 T00800036  RH  074%=      5-min Rain = 0
KHE1 190637Z 23007KT 08/04 A2993 RMK A01 T00800036  RH  074%=      5-min Rain = 0
KHE1 190638Z 23007KT 08/04 A2993 RMK A01 T00810036  RH  074%=      5-min Rain = 0
KHE1 190639Z 23007KT 08/04 A2993 RMK A01 T00810036  RH  074%=      5-min Rain = 0
KHE1 190640Z 23007KT 08/04 A2993 RMK A01 T00800037  RH  074%=      5-min Rain = 0
KHE1 190641Z 23007KT 08/04 A2993 RMK A01 T00800037  RH  074%=      5-min Rain = 0
KHE1 190642Z 23007KT 08/04 A2993 RMK A01 T00800037  RH  074%=      5-min Rain = 0
KHE1 190643Z 23007KT 08/04 A2993 RMK A01 T00800036  RH  074%=      5-min Rain = 0
KHE1 190644Z 23007KT 08/04 A2993 RMK A01 T00810036  RH  074%=      5-min Rain = 0
KHE1 190645Z 23007KT 08/04 A2993 RMK A01 T00810037  RH  074%=      5-min Rain = 0
KHE1 190646Z 23006KT 08/04 A2993 RMK A01 T00810036  RH  074%=      5-min Rain = 0
KHE1 190647Z 23006KT 08/04 A2993 RMK A01 T00810036  RH  074%=      5-min Rain = 0
KHE1 190648Z 23006KT 08/04 A2993 RMK A01 T00800036  RH  074%=      5-min Rain = 0
KHE1 190649Z 23006KT 08/04 A2993 RMK A01 T00800036  RH  074%=      5-min Rain = 0
KHE1 190650Z 23006KT 08/04 A2993 RMK A01 T00800037  RH  074%=      5-min Rain = 0
KHE1 190651Z 24006KT 08/04 A2993 RMK A01 T00800037  RH  074%=      5-min Rain = 0
KHE1 190652Z 24006KT 08/04 A2993 RMK A01 T00800037  RH  074%=      5-min Rain = 0
KHE1 190653Z 24006KT 08/04 A2993 RMK A01 T00790036  RH  074%=      5-min Rain = 0
KHE1 190654Z 24006KT 08/04 A2993 RMK A01 T00770036  RH  075%=      5-min Rain = 0
KHE1 190655Z 25007KT 08/04 A2993 RMK A01 T00760036  RH  076%=      5-min Rain = 0
KHE1 190656Z 25007KT 07/04 A2993 RMK A01 T00740036  RH  076%=      5-min Rain = 0
KHE1 190657Z 25007KT 07/04 A2993 RMK A01 T00730036  RH  077%=      5-min Rain = 0
KHE1 190658Z 25007KT 07/04 A2993 RMK A01 T00720036  RH  078%=      5-min Rain = 0
KHE1 190659Z 25007KT 07/04 A2993 RMK A01 T00730036  RH  078%=      5-min Rain = 0
KHE1 190700Z 25008KT 07/04 A2993 RMK A01 T00730036  RH  077%=      5-min Rain = 0
KHE1 190701Z 24008KT 07/04 A2993 RMK A01 T00730036  RH  077%=      5-min Rain = 0
KHE1 190702Z 24008KT 07/04 A2993 RMK A01 T00740036  RH  077%=      5-min Rain = 0
KHE1 190703Z 24008KT 08/04 A2993 RMK A01 T00750036  RH  076%=      5-min Rain = 0
KHE1 190704Z 24009KT 08/04 A2993 RMK A01 T00770037  RH  076%=      5-min Rain = 0
KHE1 190705Z 24009KT 08/04 A2993 RMK A01 T00770036  RH  075%=      5-min Rain = 0
KHE1 190706Z 24009KT 08/04 A2993 RMK A01 T00770036  RH  075%=      5-min Rain = 0
KHE1 190707Z 24009KT 08/04 A2993 RMK A01 T00790037  RH  075%=      5-min Rain = 0
KHE1 190708Z 24008KT 08/04 A2993 RMK A01 T00810037  RH  074%=      5-min Rain = 0
KHE1 190709Z 24008KT 08/04 A2993 RMK A01 T00820037  RH  073%=      5-min Rain = 0
KHE1 190710Z 24009KT 08/04 A2993 RMK A01 T00820036  RH  073%=      5-min Rain = 0
KHE1 190711Z 24009KT 08/04 A2993 RMK A01 T00830036  RH  072%=      5-min Rain = 0
KHE1 190712Z 24009KT 08/04 A2993 RMK A01 T00830036  RH  072%=      5-min Rain = 0
KHE1 190713Z 24010KT 08/04 A2993 RMK A01 T00830037  RH  073%=      5-min Rain = 0
KHE1 190714Z 24010KT 08/04 A2993 RMK A01 T00830037  RH  073%=      5-min Rain = 0
KHE1 190715Z 23010KT 08/04 A2993 RMK A01 T00830037  RH  073%=      5-min Rain = 0
KHE1 190716Z 23010KT 08/04 A2993 RMK A01 T00830037  RH  073%=      5-min Rain = 0
KHE1 190717Z 23010KT 08/04 A2993 RMK A01 T00840038  RH  073%=      5-min Rain = 0
KHE1 190718Z 23010KT 08/04 A2993 RMK A01 T00840037  RH  073%=      5-min Rain = 0
KHE1 190719Z 23010KT 08/04 A2993 RMK A01 T00840037  RH  073%=      5-min Rain = 0
KHE1 190720Z 22010KT 08/04 A2993 RMK A01 T00840037  RH  072%=      5-min Rain = 0
KHE1 190721Z 22010KT 08/04 A2993 RMK A01 T00840037  RH  072%=      5-min Rain = 0
KHE1 190722Z 23009KT 09/04 A2993 RMK A01 T00850037  RH  072%=      5-min Rain = 0
KHE1 190723Z 23009KT 08/04 A2993 RMK A01 T00840037  RH  072%=      5-min Rain = 0
KHE1 190724Z 23009KT 08/04 A2993 RMK A01 T00840037  RH  072%=      5-min Rain = 0
KHE1 190725Z 23008KT 08/04 A2993 RMK A01 T00830037  RH  073%=      5-min Rain = 0
KHE1 190726Z 23008KT 08/04 A2993 RMK A01 T00810037  RH  074%=      5-min Rain = 0
KHE1 190727Z 23009KT 08/04 A2993 RMK A01 T00800037  RH  074%=      5-min Rain = 0
KHE1 190728Z 24009KT 08/04 A2993 RMK A01 T00780037  RH  075%=      5-min Rain = 0
KHE1 190729Z 23009KT 08/04 A2993 RMK A01 T00770036  RH  075%=      5-min Rain = 0
KHE1 190730Z 23008KT 08/04 A2993 RMK A01 T00760036  RH  076%=      5-min Rain = 0
KHE1 190731Z 23008KT 08/04 A2993 RMK A01 T00760037  RH  076%=      5-min Rain = 0
KHE1 190732Z 23008KT 08/04 A2993 RMK A01 T00760037  RH  076%=      5-min Rain = 0
KHE1 190733Z 23008KT 08/04 A2993 RMK A01 T00760037  RH  076%=      5-min Rain = 0
KHE1 190734Z 23008KT 08/04 A2993 RMK A01 T00760037  RH  076%=      5-min Rain = 0
KHE1 190735Z 23008KT 08/04 A2993 RMK A01 T00760038  RH  077%=      5-min Rain = 0
KHE1 190736Z 23008KT 08/04 A2993 RMK A01 T00750037  RH  077%=      5-min Rain = 0
KHE1 190737Z 23008KT 08/04 A2993 RMK A01 T00750037  RH  077%=      5-min Rain = 0
KHE1 190738Z 23008KT 08/04 A2993 RMK A01 T00760037  RH  077%=      5-min Rain = 0
KHE1 190739Z 23008KT 08/04 A2993 RMK A01 T00760037  RH  076%=      5-min Rain = 0
KHE1 190740Z 23008KT 08/04 A2993 RMK A01 T00770038  RH  076%=      5-min Rain = 0
KHE1 190741Z 23008KT 08/04 A2993 RMK A01 T00780037  RH  075%=      5-min Rain = 0
KHE1 190742Z 23008KT 08/04 A2993 RMK A01 T00780037  RH  075%=      5-min Rain = 0
KHE1 190743Z 23008KT 08/04 A2993 RMK A01 T00780037  RH  075%=      5-min Rain = 0
KHE1 190744Z 23008KT 08/04 A2993 RMK A01 T00790037  RH  075%=      5-min Rain = 0
KHE1 190745Z 23008KT 08/04 A2993 RMK A01 T00790037  RH  075%=      5-min Rain = 0
KHE1 190746Z 23008KT 08/04 A2993 RMK A01 T00790037  RH  075%=      5-min Rain = 0
KHE1 190747Z 23008KT 08/04 A2993 RMK A01 T00780036  RH  075%=      5-min Rain = 0
KHE1 190748Z 23008KT 08/04 A2993 RMK A01 T00770036  RH  075%=      5-min Rain = 0
KHE1 190749Z 23008KT 08/04 A2993 RMK A01 T00770036  RH  075%=      5-min Rain = 0
KHE1 190750Z 23008KT 08/04 A2993 RMK A01 T00750036  RH  076%=      5-min Rain = 0
KHE1 190751Z 23008KT 08/04 A2993 RMK A01 T00750036  RH  076%=      5-min Rain = 0
KHE1 190752Z 23008KT 08/04 A2993 RMK A01 T00750036  RH  076%=      5-min Rain = 0
KHE1 190753Z 23007KT 07/04 A2993 RMK A01 T00740036  RH  077%=      5-min Rain = 0
KHE1 190754Z 23008KT 07/04 A2993 RMK A01 T00740036  RH  077%=      5-min Rain = 0
KHE1 190755Z 23008KT 07/04 A2993 RMK A01 T00730036  RH  077%=      5-min Rain = 0
KHE1 190756Z 23008KT 07/04 A2993 RMK A01 T00730036  RH  077%=      5-min Rain = 0
KHE1 190757Z 23008KT 07/04 A2993 RMK A01 T00730036  RH  077%=      5-min Rain = 0
KHE1 190758Z 23008KT 07/04 A2993 RMK A01 T00740036  RH  077%=      5-min Rain = 0
KHE1 190759Z 23008KT 07/04 A2993 RMK A01 T00740036  RH  077%=      5-min Rain = 0
KHE1 190800Z 23007KT 08/04 A2993 RMK A01 T00750036  RH  076%=      5-min Rain = 0
KHE1 190801Z 23007KT 08/04 A2993 RMK A01 T00760037  RH  076%=      5-min Rain = 0
KHE1 190802Z 23007KT 08/04 A2993 RMK A01 T00780037  RH  075%=      5-min Rain = 0
KHE1 190803Z 23007KT 08/04 A2993 RMK A01 T00790037  RH  075%=      5-min Rain = 0
KHE1 190804Z 23007KT 08/04 A2993 RMK A01 T00800037  RH  074%=      5-min Rain = 0
KHE1 190805Z 23007KT 08/04 A2993 RMK A01 T00800037  RH  074%=      5-min Rain = 0
KHE1 190806Z 23007KT 08/04 A2993 RMK A01 T00800037  RH  074%=      5-min Rain = 0
KHE1 190807Z 23008KT 08/04 A2993 RMK A01 T00800037  RH  074%=      5-min Rain = 0
KHE1 190808Z 23008KT 08/04 A2993 RMK A01 T00800037  RH  074%=      5-min Rain = 0
KHE1 190809Z 23007KT 08/04 A2993 RMK A01 T00810038  RH  074%=      5-min Rain = 0
KHE1 190810Z 23008KT 08/04 A2993 RMK A01 T00810038  RH  074%=      5-min Rain = 0
KHE1 190811Z 23008KT 08/04 A2993 RMK A01 T00820038  RH  074%=      5-min Rain = 0
KHE1 190812Z 23008KT 08/04 A2993 RMK A01 T00810038  RH  074%=      5-min Rain = 0
KHE1 190813Z 23008KT 08/04 A2993 RMK A01 T00800037  RH  074%=      5-min Rain = 0
KHE1 190814Z 23007KT 08/04 A2993 RMK A01 T00790037  RH  075%=      5-min Rain = 0
KHE1 190815Z 23007KT 08/04 A2993 RMK A01 T00790038  RH  075%=      5-min Rain = 0
KHE1 190816Z 23007KT 08/04 A2993 RMK A01 T00770037  RH  076%=      5-min Rain = 0
KHE1 190817Z 23007KT 08/04 A2993 RMK A01 T00770037  RH  076%=      5-min Rain = 0
KHE1 190818Z 23007KT 08/04 A2993 RMK A01 T00760037  RH  076%=      5-min Rain = 0
KHE1 190819Z 24007KT 08/04 A2993 RMK A01 T00760038  RH  077%=      5-min Rain = 0
KHE1 190820Z 24007KT 08/04 A2993 RMK A01 T00760038  RH  077%=      5-min Rain = 0
KHE1 190821Z 24007KT 08/04 A2993 RMK A01 T00750038  RH  077%=      5-min Rain = 0
KHE1 190822Z 24007KT 08/04 A2993 RMK A01 T00750037  RH  077%=      5-min Rain = 0
KHE1 190823Z 24007KT 08/04 A2993 RMK A01 T00750038  RH  077%=      5-min Rain = 0
KHE1 190824Z 24007KT 08/04 A2993 RMK A01 T00750038  RH  077%=      5-min Rain = 0
KHE1 190825Z 24007KT 07/04 A2993 RMK A01 T00740038  RH  077%=      5-min Rain = 0
KHE1 190826Z 23006KT 08/04 A2993 RMK A01 T00750038  RH  077%=      5-min Rain = 0
KHE1 190827Z 23006KT 08/04 A2993 RMK A01 T00760038  RH  077%=      5-min Rain = 0
KHE1 190828Z 24007KT 08/04 A2993 RMK A01 T00770038  RH  077%=      5-min Rain = 0
KHE1 190829Z 24007KT 08/04 A2993 RMK A01 T00760037  RH  076%=      5-min Rain = 0
KHE1 190830Z 24007KT 08/04 A2993 RMK A01 T00760037  RH  076%=      5-min Rain = 0
KHE1 190831Z 24007KT 08/04 A2993 RMK A01 T00770037  RH  076%=      5-min Rain = 0
KHE1 190832Z 24007KT 08/04 A2993 RMK A01 T00760037  RH  076%=      5-min Rain = 0
KHE1 190833Z 24007KT 08/04 A2993 RMK A01 T00750037  RH  077%=      5-min Rain = 0
KHE1 190834Z 23007KT 07/04 A2993 RMK A01 T00740037  RH  077%=      5-min Rain = 0
KHE1 190835Z 23006KT 07/04 A2993 RMK A01 T00730037  RH  078%=      5-min Rain = 0
KHE1 190836Z 23006KT 07/04 A2993 RMK A01 T00730037  RH  078%=      5-min Rain = 0
KHE1 190837Z 23006KT 07/04 A2993 RMK A01 T00730037  RH  078%=      5-min Rain = 0
KHE1 190838Z 23006KT 07/04 A2993 RMK A01 T00730037  RH  078%=      5-min Rain = 0
KHE1 190839Z 22006KT 08/04 A2993 RMK A01 T00750038  RH  077%=      5-min Rain = 0
KHE1 190840Z 22006KT 08/04 A2993 RMK A01 T00770038  RH  076%=      5-min Rain = 0
KHE1 190841Z 22006KT 08/04 A2993 RMK A01 T00770038  RH  076%=      5-min Rain = 0
KHE1 190842Z 21006KT 08/04 A2993 RMK A01 T00780037  RH  075%=      5-min Rain = 0
KHE1 190843Z 22005KT 08/04 A2993 RMK A01 T00780037  RH  075%=      5-min Rain = 0
KHE1 190844Z 23005KT 08/04 A2993 RMK A01 T00790037  RH  075%=      5-min Rain = 0
KHE1 190845Z 23005KT 08/04 A2993 RMK A01 T00800037  RH  074%=      5-min Rain = 0
KHE1 190846Z 23005KT 08/04 A2993 RMK A01 T00800036  RH  074%=      5-min Rain = 0
KHE1 190847Z 23005KT 08/04 A2993 RMK A01 T00800036  RH  074%=      5-min Rain = 0
KHE1 190848Z 24006KT 08/04 A2993 RMK A01 T00800035  RH  074%=      5-min Rain = 0
KHE1 190849Z 24006KT 08/04 A2993 RMK A01 T00800035  RH  074%=      5-min Rain = 0
KHE1 190850Z 24006KT 08/04 A2993 RMK A01 T00790035  RH  074%=      5-min Rain = 0
KHE1 190851Z 24006KT 08/04 A2993 RMK A01 T00780035  RH  074%=      5-min Rain = 0
KHE1 190852Z 24005KT 08/04 A2993 RMK A01 T00780035  RH  075%=      5-min Rain = 0
KHE1 190853Z 24005KT 08/04 A2993 RMK A01 T00770035  RH  075%=      5-min Rain = 0
KHE1 190854Z 24005KT 08/04 A2993 RMK A01 T00770035  RH  075%=      5-min Rain = 0
KHE1 190855Z 24005KT 08/04 A2993 RMK A01 T00760035  RH  075%=      5-min Rain = 0
KHE1 190856Z 25005KT 08/04 A2993 RMK A01 T00750035  RH  076%=      5-min Rain = 0
KHE1 190857Z 25004KT 07/04 A2993 RMK A01 T00740035  RH  076%=      5-min Rain = 0
KHE1 190858Z 25004KT 07/04 A2993 RMK A01 T00730035  RH  077%=      5-min Rain = 0
KHE1 190859Z 25004KT 07/04 A2993 RMK A01 T00720035  RH  077%=      5-min Rain = 0
KHE1 190900Z 24004KT 07/04 A2993 RMK A01 T00710035  RH  078%=      5-min Rain = 0
KHE1 190901Z 24004KT 07/04 A2993 RMK A01 T00700035  RH  078%=      5-min Rain = 0
KHE1 190902Z 24004KT 07/04 A2993 RMK A01 T00700035  RH  078%=      5-min Rain = 0
KHE1 190903Z 24004KT 07/04 A2993 RMK A01 T00720036  RH  078%=      5-min Rain = 0
KHE1 190904Z 24004KT 07/04 A2993 RMK A01 T00740036  RH  077%=      5-min Rain = 0
KHE1 190905Z 24005KT 08/04 A2993 RMK A01 T00760036  RH  076%=      5-min Rain = 0
KHE1 190906Z 24005KT 08/04 A2993 RMK A01 T00780036  RH  075%=      5-min Rain = 0
KHE1 190907Z 23005KT 08/04 A2993 RMK A01 T00790036  RH  074%=      5-min Rain = 0
KHE1 190908Z 23005KT 08/04 A2993 RMK A01 T00800036  RH  073%=      5-min Rain = 0
KHE1 190909Z 23004KT 08/04 A2993 RMK A01 T00810035  RH  073%=      5-min Rain = 0
KHE1 190910Z 23005KT 08/04 A2993 RMK A01 T00820035  RH  072%=      5-min Rain = 0
KHE1 190911Z 23005KT 08/04 A2993 RMK A01 T00830035  RH  072%=      5-min Rain = 0
KHE1 190912Z 23005KT 08/04 A2993 RMK A01 T00830035  RH  072%=      5-min Rain = 0
KHE1 190913Z 23005KT 08/04 A2993 RMK A01 T00820035  RH  072%=      5-min Rain = 0
KHE1 190914Z 23006KT 08/04 A2993 RMK A01 T00810035  RH  073%=      5-min Rain = 0
KHE1 190915Z 24006KT 08/04 A2993 RMK A01 T00800035  RH  073%=      5-min Rain = 0
KHE1 190916Z 23005KT 08/04 A2993 RMK A01 T00800035  RH  073%=      5-min Rain = 0
KHE1 190917Z 23005KT 08/04 A2993 RMK A01 T00800035  RH  073%=      5-min Rain = 0
KHE1 190918Z 23005KT 08/04 A2993 RMK A01 T00810035  RH  073%=      5-min Rain = 0
KHE1 190919Z 23005KT 08/04 A2993 RMK A01 T00810035  RH  073%=      5-min Rain = 0
KHE1 190920Z 23005KT 08/04 A2993 RMK A01 T00820035  RH  073%=      5-min Rain = 0
KHE1 190921Z 23005KT 08/04 A2993 RMK A01 T00820035  RH  072%=      5-min Rain = 0
KHE1 190922Z 24005KT 08/04 A2993 RMK A01 T00820035  RH  072%=      5-min Rain = 0
KHE1 190923Z 24005KT 08/04 A2993 RMK A01 T00820035  RH  072%=      5-min Rain = 0
KHE1 190924Z 25005KT 08/04 A2993 RMK A01 T00810035  RH  073%=      5-min Rain = 0
KHE1 190925Z 25005KT 08/04 A2993 RMK A01 T00810035  RH  073%=      5-min Rain = 0
KHE1 190926Z 25005KT 08/04 A2993 RMK A01 T00810035  RH  072%=      5-min Rain = 0
KHE1 190927Z 25005KT 08/04 A2993 RMK A01 T00830035  RH  072%=      5-min Rain = 0
KHE1 190928Z 26004KT 08/04 A2993 RMK A01 T00840035  RH  071%=      5-min Rain = 0
KHE1 190929Z 26004KT 08/04 A2993 RMK A01 T00840035  RH  071%=      5-min Rain = 0
KHE1 190930Z 26004KT 08/03 A2993 RMK A01 T00820034  RH  072%=      5-min Rain = 0
KHE1 190931Z 26004KT 08/04 A2993 RMK A01 T00800035  RH  073%=      5-min Rain = 0
KHE1 190932Z 26004KT 08/03 A2993 RMK A01 T00780034  RH  074%=      5-min Rain = 0
KHE1 190933Z 26004KT 08/03 A2993 RMK A01 T00760034  RH  075%=      5-min Rain = 0
KHE1 190934Z 26004KT 07/03 A2993 RMK A01 T00740034  RH  075%=      5-min Rain = 0
KHE1 190935Z 26004KT 07/03 A2993 RMK A01 T00740034  RH  076%=      5-min Rain = 0
KHE1 190936Z 26004KT 07/03 A2993 RMK A01 T00730034  RH  076%=      5-min Rain = 0
KHE1 190937Z 26004KT 07/03 A2993 RMK A01 T00740034  RH  076%=      5-min Rain = 0
KHE1 190938Z 26004KT 07/03 A2993 RMK A01 T00740033  RH  076%=      5-min Rain = 0
KHE1 190939Z 26004KT 07/03 A2993 RMK A01 T00730033  RH  076%=      5-min Rain = 0
KHE1 190940Z 26004KT 07/03 A2993 RMK A01 T00720034  RH  077%=      5-min Rain = 0
KHE1 190941Z 25004KT 07/03 A2993 RMK A01 T00710034  RH  077%=      5-min Rain = 0
KHE1 190942Z 25004KT 07/04 A2993 RMK A01 T00720035  RH  077%=      5-min Rain = 0
KHE1 190943Z 25004KT 08/04 A2993 RMK A01 T00750035  RH  076%=      5-min Rain = 0
KHE1 190944Z 25004KT 08/04 A2993 RMK A01 T00770035  RH  075%=      5-min Rain = 0
KHE1 190945Z 25004KT 08/04 A2993 RMK A01 T00790035  RH  074%=      5-min Rain = 0
KHE1 190946Z 25005KT 08/04 A2993 RMK A01 T00800035  RH  073%=      5-min Rain = 0
KHE1 190947Z 25004KT 08/04 A2993 RMK A01 T00810035  RH  073%=      5-min Rain = 0
KHE1 190948Z 25004KT 08/04 A2993 RMK A01 T00810035  RH  072%=      5-min Rain = 0
KHE1 190949Z 24005KT 08/03 A2993 RMK A01 T00820034  RH  072%=      5-min Rain = 0
KHE1 190950Z 23005KT 08/03 A2993 RMK A01 T00810034  RH  072%=      5-min Rain = 0
KHE1 190951Z 23005KT 08/03 A2993 RMK A01 T00790034  RH  073%=      5-min Rain = 0
KHE1 190952Z 24005KT 08/03 A2993 RMK A01 T00770034  RH  074%=      5-min Rain = 0
KHE1 190953Z 24005KT 08/03 A2993 RMK A01 T00750034  RH  075%=      5-min Rain = 0
KHE1 190954Z 25005KT 07/03 A2993 RMK A01 T00730034  RH  076%=      5-min Rain = 0
KHE1 190955Z 25005KT 07/03 A2993 RMK A01 T00720034  RH  077%=      5-min Rain = 0
KHE1 190956Z 25005KT 07/03 A2993 RMK A01 T00710034  RH  077%=      5-min Rain = 0
KHE1 190957Z 25005KT 07/03 A2993 RMK A01 T00710034  RH  077%=      5-min Rain = 0
KHE1 190958Z 25005KT 07/03 A2993 RMK A01 T00700034  RH  077%=      5-min Rain = 0
KHE1 190959Z 25005KT 07/03 A2993 RMK A01 T00690033  RH  078%=      5-min Rain = 0
KHE1 191000Z 26005KT 07/03 A2993 RMK A01 T00680033  RH  078%=      5-min Rain = 0
KHE1 191001Z 26005KT 07/03 A2993 RMK A01 T00690033  RH  078%=      5-min Rain = 0
KHE1 191002Z 26004KT 07/03 A2993 RMK A01 T00740034  RH  076%=      5-min Rain = 0
KHE1 191003Z 26004KT 08/03 A2993 RMK A01 T00780034  RH  074%=      5-min Rain = 0
KHE1 191004Z 26004KT 08/03 A2993 RMK A01 T00790034  RH  073%=      5-min Rain = 0
KHE1 191005Z 26004KT 08/03 A2993 RMK A01 T00810033  RH  072%=      5-min Rain = 0
KHE1 191006Z 26004KT 08/03 A2993 RMK A01 T00820033  RH  071%=      5-min Rain = 0
KHE1 191007Z 26004KT 08/03 A2993 RMK A01 T00810033  RH  071%=      5-min Rain = 0
KHE1 191008Z 26004KT 08/03 A2993 RMK A01 T00810032  RH  072%=      5-min Rain = 0
KHE1 191009Z 26004KT 08/03 A2994 RMK A01 T00810033  RH  072%=      5-min Rain = 0
KHE1 191010Z 25004KT 08/03 A2994 RMK A01 T00810033  RH  072%=      5-min Rain = 0
KHE1 191016Z 26005KT 07/03 A2994 RMK A01 T00740032  RH  075%=      5-min Rain = 0
KHE1 191017Z 26005KT 07/03 A2994 RMK A01 T00720031  RH  075%=      5-min Rain = 0
KHE1 191018Z 26005KT 07/03 A2994 RMK A01 T00690030  RH  076%=      5-min Rain = 0
KHE1 191019Z 26005KT 07/03 A2994 RMK A01 T00670030  RH  077%=      5-min Rain = 0
KHE1 191020Z 26005KT 07/03 A2994 RMK A01 T00660030  RH  078%=      5-min Rain = 0
KHE1 191021Z 25005KT 07/03 A2994 RMK A01 T00660030  RH  078%=      5-min Rain = 0
KHE1 191022Z 25005KT 07/03 A2994 RMK A01 T00650030  RH  078%=      5-min Rain = 0
KHE1 191023Z 24006KT 06/03 A2994 RMK A01 T00640030  RH  078%=      5-min Rain = 0
KHE1 191024Z 24005KT 06/03 A2994 RMK A01 T00640030  RH  079%=      5-min Rain = 0
KHE1 191025Z 24005KT 06/03 A2994 RMK A01 T00640030  RH  079%=      5-min Rain = 0
KHE1 191026Z 24005KT 06/03 A2994 RMK A01 T00640030  RH  079%=      5-min Rain = 0
KHE1 191027Z 24005KT 06/03 A2994 RMK A01 T00620030  RH  079%=      5-min Rain = 0
KHE1 191028Z 24005KT 06/03 A2994 RMK A01 T00620030  RH  080%=      5-min Rain = 0
KHE1 191029Z 24005KT 06/03 A2994 RMK A01 T00620030  RH  080%=      5-min Rain = 0
KHE1 191030Z 24005KT 06/03 A2994 RMK A01 T00610030  RH  080%=      5-min Rain = 0
KHE1 191031Z 24005KT 06/03 A2994 RMK A01 T00610030  RH  081%=      5-min Rain = 0
KHE1 191032Z 24005KT 06/03 A2994 RMK A01 T00610030  RH  081%=      5-min Rain = 0
KHE1 191033Z 24005KT 06/03 A2994 RMK A01 T00610031  RH  081%=      5-min Rain = 0
KHE1 191034Z 23005KT 06/03 A2994 RMK A01 T00620031  RH  081%=      5-min Rain = 0
KHE1 191035Z 23005KT 06/03 A2994 RMK A01 T00620031  RH  081%=      5-min Rain = 0
KHE1 191036Z 24005KT 06/03 A2994 RMK A01 T00620032  RH  081%=      5-min Rain = 0
KHE1 191037Z 24006KT 06/03 A2994 RMK A01 T00630032  RH  080%=      5-min Rain = 0
KHE1 191038Z 24006KT 06/03 A2994 RMK A01 T00640032  RH  080%=      5-min Rain = 0
KHE1 191039Z 24006KT 06/03 A2994 RMK A01 T00640032  RH  080%=      5-min Rain = 0
KHE1 191040Z 24006KT 06/03 A2994 RMK A01 T00640032  RH  080%=      5-min Rain = 0
KHE1 191041Z 24006KT 06/03 A2994 RMK A01 T00630031  RH  080%=      5-min Rain = 0
KHE1 191042Z 24005KT 06/03 A2994 RMK A01 T00630031  RH  080%=      5-min Rain = 0
KHE1 191043Z 24005KT 06/03 A2994 RMK A01 T00620031  RH  080%=      5-min Rain = 0
KHE1 191044Z 24005KT 06/03 A2994 RMK A01 T00620030  RH  080%=      5-min Rain = 0
KHE1 191045Z 24005KT 06/03 A2994 RMK A01 T00620031  RH  080%=      5-min Rain = 0
KHE1 191046Z 24005KT 06/03 A2994 RMK A01 T00630030  RH  080%=      5-min Rain = 0
KHE1 191047Z 24005KT 06/03 A2994 RMK A01 T00630031  RH  080%=      5-min Rain = 0
KHE1 191048Z 24005KT 06/03 A2994 RMK A01 T00630031  RH  080%=      5-min Rain = 0
KHE1 191049Z 24005KT 06/03 A2994 RMK A01 T00640031  RH  079%=      5-min Rain = 0
KHE1 191050Z 23005KT 06/03 A2994 RMK A01 T00640031  RH  079%=      5-min Rain = 0
KHE1 191051Z 23005KT 07/03 A2994 RMK A01 T00650031  RH  079%=      5-min Rain = 0
KHE1 191052Z 23005KT 07/03 A2994 RMK A01 T00660031  RH  079%=      5-min Rain = 0
KHE1 191053Z 23005KT 07/03 A2994 RMK A01 T00660031  RH  078%=      5-min Rain = 0
KHE1 191054Z 23005KT 07/03 A2994 RMK A01 T00670031  RH  078%=      5-min Rain = 0
KHE1 191055Z 23005KT 07/03 A2994 RMK A01 T00680031  RH  077%=      5-min Rain = 0
KHE1 191056Z 23005KT 07/03 A2994 RMK A01 T00680031  RH  077%=      5-min Rain = 0
KHE1 191057Z 23005KT 07/03 A2994 RMK A01 T00670031  RH  077%=      5-min Rain = 0
KHE1 191058Z 23005KT 07/03 A2994 RMK A01 T00660030  RH  078%=      5-min Rain = 0
KHE1 191059Z 23005KT 06/03 A2994 RMK A01 T00640030  RH  079%=      5-min Rain = 0
KHE1 191100Z 23005KT 06/03 A2994 RMK A01 T00630030  RH  079%=      5-min Rain = 0
KHE1 191101Z 23005KT 06/03 A2994 RMK A01 T00620030  RH  080%=      5-min Rain = 0
KHE1 191102Z 23005KT 06/03 A2994 RMK A01 T00610030  RH  080%=      5-min Rain = 0
KHE1 191103Z 23005KT 06/03 A2995 RMK A01 T00600030  RH  081%=      5-min Rain = 0
KHE1 191104Z 23005KT 06/03 A2995 RMK A01 T00600029  RH  081%=      5-min Rain = 0
KHE1 191105Z 23005KT 06/03 A2995 RMK A01 T00600030  RH  081%=      5-min Rain = 0
KHE1 191106Z 24005KT 06/03 A2995 RMK A01 T00590030  RH  081%=      5-min Rain = 0
KHE1 191107Z 24005KT 06/03 A2995 RMK A01 T00600030  RH  081%=      5-min Rain = 0
KHE1 191108Z 24005KT 06/03 A2995 RMK A01 T00600030  RH  081%=      5-min Rain = 0
KHE1 191109Z 24005KT 06/03 A2995 RMK A01 T00610030  RH  081%=      5-min Rain = 0
KHE1 191110Z 24005KT 06/03 A2995 RMK A01 T00610030  RH  080%=      5-min Rain = 0
KHE1 191111Z 24005KT 06/03 A2995 RMK A01 T00610030  RH  080%=      5-min Rain = 0
KHE1 191112Z 24005KT 06/03 A2995 RMK A01 T00610030  RH  080%=      5-min Rain = 0
KHE1 191113Z 24005KT 06/03 A2995 RMK A01 T00610030  RH  080%=      5-min Rain = 0
KHE1 191114Z 24005KT 06/03 A2995 RMK A01 T00610030  RH  080%=      5-min Rain = 0
KHE1 191115Z 24005KT 06/03 A2995 RMK A01 T00620030  RH  080%=      5-min Rain = 0
KHE1 191116Z 24005KT 06/03 A2995 RMK A01 T00610030  RH  080%=      5-min Rain = 0
KHE1 191117Z 24005KT 06/03 A2995 RMK A01 T00610030  RH  081%=      5-min Rain = 0
KHE1 191118Z 24005KT 06/03 A2995 RMK A01 T00610030  RH  081%=      5-min Rain = 0
KHE1 191119Z 24005KT 06/03 A2995 RMK A01 T00610030  RH  081%=      5-min Rain = 0
KHE1 191120Z 24005KT 06/03 A2995 RMK A01 T00610030  RH  081%=      5-min Rain = 0
KHE1 191121Z 24005KT 06/03 A2995 RMK A01 T00620030  RH  080%=      5-min Rain = 0
KHE1 191122Z 24005KT 06/03 A2995 RMK A01 T00620030  RH  080%=      5-min Rain = 0
KHE1 191123Z 24005KT 06/03 A2995 RMK A01 T00630030  RH  080%=      5-min Rain = 0
KHE1 191124Z 24005KT 06/03 A2995 RMK A01 T00630030  RH  079%=      5-min Rain = 0
KHE1 191125Z 24005KT 06/03 A2995 RMK A01 T00630030  RH  079%=      5-min Rain = 0
KHE1 191126Z 24006KT 06/03 A2995 RMK A01 T00640030  RH  079%=      5-min Rain = 0
KHE1 191127Z 24006KT 06/03 A2995 RMK A01 T00630030  RH  079%=      5-min Rain = 0
KHE1 191128Z 24006KT 06/03 A2995 RMK A01 T00630030  RH  079%=      5-min Rain = 0
KHE1 191129Z 24006KT 06/03 A2995 RMK A01 T00620029  RH  080%=      5-min Rain = 0
KHE1 191130Z 24005KT 06/03 A2995 RMK A01 T00620029  RH  080%=      5-min Rain = 0
KHE1 191131Z 24005KT 06/03 A2995 RMK A01 T00620029  RH  080%=      5-min Rain = 0
KHE1 191132Z 24005KT 06/03 A2995 RMK A01 T00620029  RH  079%=      5-min Rain = 0
KHE1 191133Z 24005KT 06/03 A2995 RMK A01 T00620029  RH  079%=      5-min Rain = 0
KHE1 191134Z 24005KT 06/03 A2995 RMK A01 T00630029  RH  079%=      5-min Rain = 0
KHE1 191135Z 24005KT 06/03 A2995 RMK A01 T00630029  RH  079%=      5-min Rain = 0
KHE1 191136Z 25005KT 06/03 A2995 RMK A01 T00630029  RH  079%=      5-min Rain = 0
KHE1 191137Z 25005KT 06/03 A2995 RMK A01 T00630029  RH  079%=      5-min Rain = 0
KHE1 191138Z 25005KT 06/03 A2995 RMK A01 T00640029  RH  078%=      5-min Rain = 0
KHE1 191139Z 26004KT 06/03 A2995 RMK A01 T00640029  RH  078%=      5-min Rain = 0
KHE1 191140Z 26004KT 07/03 A2995 RMK A01 T00650030  RH  078%=      5-min Rain = 0
KHE1 191141Z 26004KT 07/03 A2995 RMK A01 T00660030  RH  078%=      5-min Rain = 0
KHE1 191142Z 26004KT 07/03 A2995 RMK A01 T00670030  RH  077%=      5-min Rain = 0
KHE1 191143Z 26004KT 07/03 A2995 RMK A01 T00670030  RH  077%=      5-min Rain = 0
KHE1 191144Z 26004KT 07/03 A2995 RMK A01 T00680030  RH  077%=      5-min Rain = 0
KHE1 191145Z 26004KT 07/03 A2995 RMK A01 T00680030  RH  077%=      5-min Rain = 0
KHE1 191146Z 26004KT 07/03 A2995 RMK A01 T00690030  RH  076%=      5-min Rain = 0
KHE1 191147Z 26004KT 07/03 A2995 RMK A01 T00700031  RH  076%=      5-min Rain = 0
KHE1 191148Z 26005KT 07/03 A2995 RMK A01 T00700030  RH  076%=      5-min Rain = 0
KHE1 191149Z 26004KT 07/03 A2995 RMK A01 T00700030  RH  076%=      5-min Rain = 0
KHE1 191150Z 25005KT 07/03 A2995 RMK A01 T00700030  RH  076%=      5-min Rain = 0
KHE1 191151Z 25004KT 07/03 A2995 RMK A01 T00700030  RH  076%=      5-min Rain = 0
KHE1 191152Z 25004KT 07/03 A2995 RMK A01 T00710030  RH  075%=      5-min Rain = 0
KHE1 191153Z 25004KT 07/03 A2995 RMK A01 T00710030  RH  075%=      5-min Rain = 0
KHE1 191154Z 25004KT 07/03 A2995 RMK A01 T00710030  RH  075%=      5-min Rain = 0
KHE1 191155Z 25004KT 07/03 A2995 RMK A01 T00710030  RH  075%=      5-min Rain = 0
KHE1 191156Z 26004KT 07/03 A2995 RMK A01 T00720030  RH  075%=      5-min Rain = 0
KHE1 191157Z 26004KT 07/03 A2995 RMK A01 T00720030  RH  074%=      5-min Rain = 0
KHE1 191158Z 25004KT 07/03 A2995 RMK A01 T00730030  RH  074%=      5-min Rain = 0
KHE1 191159Z 25004KT 07/03 A2996 RMK A01 T00730030  RH  074%=      5-min Rain = 0
KHE1 191200Z 25004KT 07/03 A2996 RMK A01 T00730030  RH  074%=      5-min Rain = 0
KHE1 191201Z 24004KT 07/03 A2996 RMK A01 T00730030  RH  074%=      5-min Rain = 0
KHE1 191202Z 25003KT 07/03 A2996 RMK A01 T00730030  RH  074%=      5-min Rain = 0
KHE1 191203Z 25003KT 07/03 A2996 RMK A01 T00730029  RH  074%=      5-min Rain = 0
KHE1 191204Z 25003KT 07/03 A2996 RMK A01 T00730030  RH  074%=      5-min Rain = 0
KHE1 191205Z 25003KT 07/03 A2996 RMK A01 T00720030  RH  074%=      5-min Rain = 0
KHE1 191206Z 25003KT 07/03 A2996 RMK A01 T00720030  RH  075%=      5-min Rain = 0
KHE1 191207Z 25002KT 07/03 A2996 RMK A01 T00700029  RH  075%=      5-min Rain = 0
KHE1 191208Z 26002KT 07/03 A2996 RMK A01 T00680029  RH  076%=      5-min Rain = 0
KHE1 191209Z 27002KT 07/03 A2996 RMK A01 T00670029  RH  077%=      5-min Rain = 0
KHE1 191210Z 28002KT 07/03 A2996 RMK A01 T00660029  RH  077%=      5-min Rain = 0
KHE1 191211Z 28002KT 07/03 A2996 RMK A01 T00660029  RH  077%=      5-min Rain = 0
KHE1 191212Z 28002KT 07/03 A2996 RMK A01 T00670029  RH  077%=      5-min Rain = 0
KHE1 191213Z 28002KT 07/03 A2996 RMK A01 T00670029  RH  077%=      5-min Rain = 0
KHE1 191214Z 28002KT 07/03 A2996 RMK A01 T00680029  RH  076%=      5-min Rain = 0
KHE1 191215Z 28002KT 07/03 A2996 RMK A01 T00690029  RH  076%=      5-min Rain = 0
KHE1 191216Z 29002KT 07/03 A2996 RMK A01 T00690029  RH  076%=      5-min Rain = 0
KHE1 191217Z 30002KT 07/03 A2996 RMK A01 T00700029  RH  075%=      5-min Rain = 0
KHE1 191218Z 30002KT 07/03 A2995 RMK A01 T00700029  RH  075%=      5-min Rain = 0
KHE1 191219Z 30002KT 07/03 A2995 RMK A01 T00700029  RH  075%=      5-min Rain = 0
KHE1 191220Z 30002KT 07/03 A2995 RMK A01 T00700029  RH  075%=      5-min Rain = 0
KHE1 191221Z 30002KT 07/03 A2995 RMK A01 T00700029  RH  075%=      5-min Rain = 0
KHE1 191222Z 30001KT 07/03 A2995 RMK A01 T00690029  RH  075%=      5-min Rain = 0
KHE1 191223Z 30001KT 07/03 A2995 RMK A01 T00690029  RH  075%=      5-min Rain = 0
KHE1 191224Z 30001KT 07/03 A2995 RMK A01 T00700029  RH  075%=      5-min Rain = 0
KHE1 191225Z 30001KT 07/03 A2995 RMK A01 T00720030  RH  075%=      5-min Rain = 0
KHE1 191226Z 30001KT 07/03 A2995 RMK A01 T00730030  RH  074%=      5-min Rain = 0
KHE1 191227Z 30000KT 08/03 A2995 RMK A01 T00750030  RH  073%=      5-min Rain = 0
KHE1 191228Z 30000KT 08/03 A2995 RMK A01 T00770030  RH  072%=      5-min Rain = 0
KHE1 191229Z 30000KT 08/03 A2995 RMK A01 T00780030  RH  072%=      5-min Rain = 0
KHE1 191230Z 30001KT 08/03 A2995 RMK A01 T00790030  RH  071%=      5-min Rain = 0
KHE1 191231Z 30000KT 08/03 A2995 RMK A01 T00790029  RH  071%=      5-min Rain = 0
KHE1 191232Z 30000KT 08/03 A2995 RMK A01 T00790029  RH  071%=      5-min Rain = 0
KHE1 191233Z 30001KT 08/03 A2995 RMK A01 T00780029  RH  071%=      5-min Rain = 0
KHE1 191234Z 30001KT 08/03 A2995 RMK A01 T00790029  RH  071%=      5-min Rain = 0
KHE1 191235Z 30001KT 08/03 A2995 RMK A01 T00800029  RH  071%=      5-min Rain = 0
KHE1 191236Z 30001KT 08/03 A2995 RMK A01 T00800029  RH  070%=      5-min Rain = 0
KHE1 191237Z 30000KT 08/03 A2995 RMK A01 T00810029  RH  070%=      5-min Rain = 0
KHE1 191238Z 00000KT 08/03 A2995 RMK A01 T00810029  RH  070%=      5-min Rain = 0
KHE1 191239Z 00000KT 08/03 A2995 RMK A01 T00810029  RH  070%=      5-min Rain = 0
KHE1 191240Z 00000KT 08/03 A2995 RMK A01 T00810029  RH  070%=      5-min Rain = 0
KHE1 191241Z 00000KT 08/03 A2995 RMK A01 T00810029  RH  070%=      5-min Rain = 0
KHE1 191242Z 00000KT 08/03 A2995 RMK A01 T00810029  RH  070%=      5-min Rain = 0
KHE1 191243Z 00000KT 08/03 A2995 RMK A01 T00800029  RH  070%=      5-min Rain = 0
KHE1 191244Z 00000KT 08/03 A2995 RMK A01 T00780028  RH  071%=      5-min Rain = 0
KHE1 191245Z 00000KT 08/03 A2995 RMK A01 T00760028  RH  071%=      5-min Rain = 0
KHE1 191246Z 00000KT 07/03 A2995 RMK A01 T00730027  RH  073%=      5-min Rain = 0
KHE1 191247Z 00000KT 07/03 A2996 RMK A01 T00690026  RH  074%=      5-min Rain = 0
KHE1 191248Z 00000KT 07/03 A2996 RMK A01 T00650025  RH  076%=      5-min Rain = 0
KHE1 191249Z 00000KT 06/03 A2996 RMK A01 T00630026  RH  077%=      5-min Rain = 0
KHE1 191250Z 30001KT 06/03 A2996 RMK A01 T00630027  RH  078%=      5-min Rain = 0
KHE1 191251Z 30001KT 06/03 A2996 RMK A01 T00640028  RH  078%=      5-min Rain = 0
KHE1 191252Z 30001KT 07/03 A2996 RMK A01 T00680030  RH  077%=      5-min Rain = 0
KHE1 191253Z 10001KT 07/03 A2996 RMK A01 T00710030  RH  075%=      5-min Rain = 0
KHE1 191254Z 11001KT 07/03 A2996 RMK A01 T00710029  RH  074%=      5-min Rain = 0
KHE1 191255Z 10001KT 07/03 A2996 RMK A01 T00710028  RH  074%=      5-min Rain = 0
KHE1 191256Z 09002KT 07/03 A2996 RMK A01 T00700028  RH  075%=      5-min Rain = 0
KHE1 191257Z 08002KT 07/03 A2996 RMK A01 T00690028  RH  075%=      5-min Rain = 0
KHE1 191258Z 06002KT 07/03 A2996 RMK A01 T00680028  RH  076%=      5-min Rain = 0
KHE1 191259Z 06002KT 07/03 A2996 RMK A01 T00670028  RH  076%=      5-min Rain = 0
KHE1 191300Z 07002KT 07/03 A2996 RMK A01 T00670027  RH  076%=      5-min Rain = 0
KHE1 191301Z 06002KT 07/03 A2996 RMK A01 T00660027  RH  076%=      5-min Rain = 0
KHE1 191302Z 06002KT 07/03 A2996 RMK A01 T00660027  RH  076%=      5-min Rain = 0
KHE1 191303Z 08001KT 07/03 A2996 RMK A01 T00660027  RH  076%=      5-min Rain = 0
KHE1 191304Z 09002KT 07/03 A2996 RMK A01 T00670027  RH  076%=      5-min Rain = 0
KHE1 191305Z 10001KT 07/03 A2996 RMK A01 T00660027  RH  076%=      5-min Rain = 0
KHE1 191306Z 10001KT 07/03 A2996 RMK A01 T00660028  RH  077%=      5-min Rain = 0
KHE1 191307Z 10001KT 07/03 A2996 RMK A01 T00680029  RH  076%=      5-min Rain = 0
KHE1 191308Z 10001KT 07/03 A2996 RMK A01 T00690029  RH  075%=      5-min Rain = 0
KHE1 191309Z 10001KT 07/03 A2995 RMK A01 T00690029  RH  075%=      5-min Rain = 0
KHE1 191310Z 10002KT 07/03 A2995 RMK A01 T00700029  RH  075%=      5-min Rain = 0
KHE1 191311Z 12002KT 07/03 A2995 RMK A01 T00700028  RH  075%=      5-min Rain = 0
KHE1 191312Z 14002KT 07/03 A2995 RMK A01 T00670028  RH  076%=      5-min Rain = 0
KHE1 191313Z 14002KT 07/03 A2995 RMK A01 T00650028  RH  077%=      5-min Rain = 0
KHE1 191314Z 12002KT 07/03 A2995 RMK A01 T00650028  RH  077%=      5-min Rain = 0
KHE1 191315Z 10002KT 07/03 A2995 RMK A01 T00660029  RH  077%=      5-min Rain = 0
KHE1 191316Z 09002KT 07/03 A2995 RMK A01 T00670029  RH  076%=      5-min Rain = 0
KHE1 191317Z 08001KT 07/03 A2995 RMK A01 T00670028  RH  076%=      5-min Rain = 0
KHE1 191318Z 10001KT 07/03 A2995 RMK A01 T00690029  RH  076%=      5-min Rain = 0
KHE1 191319Z 10001KT 07/03 A2995 RMK A01 T00730030  RH  074%=      5-min Rain = 0
KHE1 191320Z 11001KT 08/03 A2996 RMK A01 T00750030  RH  073%=      5-min Rain = 0
KHE1 191321Z 11002KT 08/03 A2996 RMK A01 T00760029  RH  072%=      5-min Rain = 0
KHE1 191322Z 11001KT 08/03 A2996 RMK A01 T00760029  RH  072%=      5-min Rain = 0
KHE1 191323Z 12002KT 08/03 A2996 RMK A01 T00760029  RH  072%=      5-min Rain = 0
KHE1 191324Z 14002KT 07/03 A2996 RMK A01 T00740029  RH  073%=      5-min Rain = 0
KHE1 191325Z 15003KT 07/03 A2996 RMK A01 T00720029  RH  074%=      5-min Rain = 0
KHE1 191326Z 15003KT 07/03 A2996 RMK A01 T00710029  RH  075%=      5-min Rain = 0
KHE1 191327Z 15003KT 07/03 A2996 RMK A01 T00700029  RH  075%=      5-min Rain = 0
KHE1 191328Z 14003KT 07/03 A2996 RMK A01 T00700028  RH  075%=      5-min Rain = 0
KHE1 191329Z 15004KT 07/03 A2996 RMK A01 T00700028  RH  075%=      5-min Rain = 0
KHE1 191330Z 15004KT 07/03 A2996 RMK A01 T00690028  RH  075%=      5-min Rain = 0
KHE1 191331Z 15003KT 07/03 A2996 RMK A01 T00690028  RH  075%=      5-min Rain = 0
KHE1 191332Z 15003KT 07/03 A2996 RMK A01 T00680028  RH  076%=      5-min Rain = 0
KHE1 191333Z 14004KT 07/03 A2996 RMK A01 T00690029  RH  076%=      5-min Rain = 0
KHE1 191334Z 14004KT 07/03 A2996 RMK A01 T00690029  RH  076%=      5-min Rain = 0
KHE1 191335Z 14004KT 07/03 A2996 RMK A01 T00690029  RH  076%=      5-min Rain = 0
KHE1 191336Z 13004KT 07/03 A2996 RMK A01 T00700029  RH  076%=      5-min Rain = 0
KHE1 191337Z 13004KT 07/03 A2996 RMK A01 T00700029  RH  075%=      5-min Rain = 0
KHE1 191338Z 14003KT 07/03 A2996 RMK A01 T00710030  RH  075%=      5-min Rain = 0
KHE1 191339Z 14004KT 07/03 A2996 RMK A01 T00710030  RH  075%=      5-min Rain = 0
KHE1 191340Z 14004KT 07/03 A2996 RMK A01 T00710030  RH  075%=      5-min Rain = 0
KHE1 191341Z 14004KT 07/03 A2996 RMK A01 T00710031  RH  075%=      5-min Rain = 0
KHE1 191342Z 14003KT 07/03 A2996 RMK A01 T00710030  RH  075%=      5-min Rain = 0
KHE1 191343Z 14003KT 07/03 A2996 RMK A01 T00710031  RH  076%=      5-min Rain = 0
KHE1 191344Z 14004KT 07/03 A2996 RMK A01 T00710032  RH  076%=      5-min Rain = 0
KHE1 191345Z 14004KT 07/03 A2996 RMK A01 T00720032  RH  076%=      5-min Rain = 0
KHE1 191346Z 15004KT 07/03 A2996 RMK A01 T00730033  RH  076%=      5-min Rain = 0
KHE1 191347Z 15004KT 07/03 A2996 RMK A01 T00730033  RH  076%=      5-min Rain = 0
KHE1 191348Z 15004KT 07/03 A2996 RMK A01 T00730033  RH  076%=      5-min Rain = 0
KHE1 191349Z 15004KT 07/03 A2996 RMK A01 T00730033  RH  076%=      5-min Rain = 0
KHE1 191350Z 16004KT 07/03 A2996 RMK A01 T00730033  RH  076%=      5-min Rain = 0
KHE1 191351Z 15003KT 07/03 A2996 RMK A01 T00720034  RH  077%=      5-min Rain = 0
KHE1 191352Z 15004KT 07/04 A2996 RMK A01 T00720035  RH  077%=      5-min Rain = 0
KHE1 191353Z 16005KT 07/04 A2996 RMK A01 T00720036  RH  078%=      5-min Rain = 0
KHE1 191354Z 17006KT 07/04 A2996 RMK A01 T00720036  RH  078%=      5-min Rain = 0
KHE1 191355Z 17006KT 07/04 A2996 RMK A01 T00710036  RH  078%=      5-min Rain = 0
KHE1 191356Z 17005KT 07/04 A2996 RMK A01 T00710037  RH  079%=      5-min Rain = 0
KHE1 191357Z 17005KT 07/04 A2996 RMK A01 T00720038  RH  079%=      5-min Rain = 0
KHE1 191358Z 17006KT 07/04 A2996 RMK A01 T00720039  RH  079%=      5-min Rain = 0
KHE1 191359Z 17005KT 07/04 A2996 RMK A01 T00730039  RH  079%=      5-min Rain = 0
KHE1 191400Z 17005KT 07/04 A2996 RMK A01 T00730040  RH  079%=      5-min Rain = 0
KHE1 191401Z 17005KT 07/04 A2996 RMK A01 T00740040  RH  079%=      5-min Rain = 0
KHE1 191402Z 17005KT 08/04 A2996 RMK A01 T00750040  RH  079%=      5-min Rain = 0
KHE1 191403Z 17005KT 08/04 A2996 RMK A01 T00750041  RH  079%=      5-min Rain = 0
KHE1 191404Z 17004KT 08/04 A2996 RMK A01 T00760040  RH  078%=      5-min Rain = 0
KHE1 191405Z 17004KT 08/04 A2996 RMK A01 T00760040  RH  078%=      5-min Rain = 0
KHE1 191406Z 17005KT 08/04 A2996 RMK A01 T00770041  RH  078%=      5-min Rain = 0
KHE1 191407Z 17005KT 08/04 A2996 RMK A01 T00780041  RH  078%=      5-min Rain = 0
KHE1 191408Z 17005KT 08/04 A2996 RMK A01 T00790042  RH  077%=      5-min Rain = 0
KHE1 191409Z 17005KT 08/04 A2996 RMK A01 T00790041  RH  077%=      5-min Rain = 0
KHE1 191410Z 17006KT 08/04 A2996 RMK A01 T00800042  RH  077%=      5-min Rain = 0
KHE1 191411Z 17007KT 08/04 A2996 RMK A01 T00810043  RH  077%=      5-min Rain = 0
KHE1 191412Z 17007KT 08/04 A2996 RMK A01 T00810043  RH  077%=      5-min Rain = 0
KHE1 191413Z 17007KT 08/04 A2996 RMK A01 T00820043  RH  077%=      5-min Rain = 0
KHE1 191414Z 17008KT 08/04 A2996 RMK A01 T00820044  RH  077%=      5-min Rain = 0
KHE1 191415Z 17007KT 08/04 A2996 RMK A01 T00830044  RH  076%=      5-min Rain = 0
KHE1 191416Z 18007KT 08/04 A2996 RMK A01 T00840043  RH  076%=      5-min Rain = 0
KHE1 191417Z 17006KT 08/04 A2996 RMK A01 T00840044  RH  076%=      5-min Rain = 0
KHE1 191418Z 17006KT 08/04 A2996 RMK A01 T00840044  RH  076%=      5-min Rain = 0
KHE1 191419Z 17006KT 09/05 A2997 RMK A01 T00850046  RH  076%=      5-min Rain = 0
KHE1 191420Z 18006KT 09/05 A2997 RMK A01 T00850048  RH  077%=      5-min Rain = 0
KHE1 191421Z 18005KT 09/05 A2997 RMK A01 T00860049  RH  077%=      5-min Rain = 0
KHE1 191422Z 18005KT 09/05 A2996 RMK A01 T00870048  RH  077%=      5-min Rain = 0
KHE1 191423Z 18005KT 09/05 A2996 RMK A01 T00870049  RH  077%=      5-min Rain = 0
KHE1 191424Z 18005KT 09/05 A2996 RMK A01 T00880050  RH  077%=      5-min Rain = 0
KHE1 191425Z 18006KT 09/05 A2997 RMK A01 T00890049  RH  076%=      5-min Rain = 0
KHE1 191426Z 18005KT 09/05 A2997 RMK A01 T00900049  RH  075%=      5-min Rain = 0
KHE1 191427Z 18006KT 09/05 A2997 RMK A01 T00910048  RH  074%=      5-min Rain = 0
KHE1 191428Z 18006KT 09/05 A2997 RMK A01 T00920046  RH  073%=      5-min Rain = 0
KHE1 191429Z 18006KT 09/05 A2997 RMK A01 T00920047  RH  073%=      5-min Rain = 0
KHE1 191430Z 18006KT 09/05 A2997 RMK A01 T00930048  RH  073%=      5-min Rain = 0
KHE1 191431Z 18006KT 09/05 A2997 RMK A01 T00940048  RH  073%=      5-min Rain = 0
KHE1 191432Z 18007KT 09/05 A2997 RMK A01 T00940047  RH  072%=      5-min Rain = 0
KHE1 191433Z 18007KT 10/05 A2997 RMK A01 T00950046  RH  071%=      5-min Rain = 0
KHE1 191434Z 18007KT 10/05 A2997 RMK A01 T00960047  RH  071%=      5-min Rain = 0
KHE1 191435Z 18007KT 10/05 A2997 RMK A01 T00970048  RH  071%=      5-min Rain = 0
KHE1 191436Z 18007KT 10/05 A2997 RMK A01 T00980048  RH  071%=      5-min Rain = 0
KHE1 191437Z 18006KT 10/05 A2997 RMK A01 T00990050  RH  072%=      5-min Rain = 0
KHE1 191438Z 18006KT 10/05 A2997 RMK A01 T01000050  RH  071%=      5-min Rain = 0
KHE1 191439Z 18007KT 10/05 A2997 RMK A01 T01010050  RH  070%=      5-min Rain = 0
KHE1 191440Z 18008KT 10/05 A2997 RMK A01 T01020049  RH  070%=      5-min Rain = 0
KHE1 191441Z 18008KT 10/05 A2997 RMK A01 T01030049  RH  069%=      5-min Rain = 0
KHE1 191442Z 18008KT 10/05 A2997 RMK A01 T01040050  RH  069%=      5-min Rain = 0
KHE1 191443Z 19007KT 11/05 A2997 RMK A01 T01060051  RH  069%=      5-min Rain = 0
KHE1 191444Z 18007KT 11/05 A2997 RMK A01 T01070051  RH  068%=      5-min Rain = 0
KHE1 191445Z 19007KT 11/05 A2997 RMK A01 T01080049  RH  067%=      5-min Rain = 0
KHE1 191446Z 18006KT 11/05 A2997 RMK A01 T01090050  RH  067%=      5-min Rain = 0
KHE1 191447Z 18006KT 11/05 A2997 RMK A01 T01090049  RH  066%=      5-min Rain = 0
KHE1 191448Z 18006KT 11/05 A2997 RMK A01 T01100051  RH  067%=      5-min Rain = 0
KHE1 191449Z 18006KT 11/05 A2997 RMK A01 T01110050  RH  066%=      5-min Rain = 0
KHE1 191450Z 18006KT 11/05 A2997 RMK A01 T01120052  RH  067%=      5-min Rain = 0
KHE1 191451Z 18006KT 11/05 A2997 RMK A01 T01140051  RH  066%=      5-min Rain = 0
KHE1 191452Z 18006KT 11/05 A2997 RMK A01 T01140051  RH  065%=      5-min Rain = 0
KHE1 191453Z 18007KT 12/05 A2997 RMK A01 T01150052  RH  065%=      5-min Rain = 0
KHE1 191454Z 18007KT 12/05 A2997 RMK A01 T01170050  RH  064%=      5-min Rain = 0
KHE1 191455Z 18006KT 12/05 A2997 RMK A01 T01170050  RH  063%=      5-min Rain = 0
KHE1 191456Z 17005KT 12/05 A2997 RMK A01 T01180051  RH  063%=      5-min Rain = 0
KHE1 191457Z 18005KT 12/06 A2997 RMK A01 T01200055  RH  065%=      5-min Rain = 0
KHE1 191458Z 17005KT 12/06 A2997 RMK A01 T01220057  RH  065%=      5-min Rain = 0
KHE1 191459Z 17007KT 12/05 A2997 RMK A01 T01230053  RH  062%=      5-min Rain = 0
KHE1 191500Z 18006KT 12/05 A2997 RMK A01 T01230054  RH  062%=      5-min Rain = 0
KHE1 191501Z 17005KT 12/05 A2996 RMK A01 T01240053  RH  062%=      5-min Rain = 0
KHE1 191502Z 17006KT 13/06 A2996 RMK A01 T01260056  RH  063%=      5-min Rain = 0
KHE1 191503Z 17007KT 13/05 A2996 RMK A01 T01270054  RH  061%=      5-min Rain = 0
KHE1 191504Z 17007KT 13/06 A2996 RMK A01 T01280055  RH  061%=      5-min Rain = 0
KHE1 191505Z 17007KT 13/05 A2996 RMK A01 T01290052  RH  060%=      5-min Rain = 0
KHE1 191506Z 17007KT 13/05 A2996 RMK A01 T01290052  RH  060%=      5-min Rain = 0
KHE1 191507Z 17007KT 13/05 A2996 RMK A01 T01290053  RH  060%=      5-min Rain = 0
KHE1 191508Z 17007KT 13/05 A2996 RMK A01 T01300053  RH  060%=      5-min Rain = 0
KHE1 191509Z 17006KT 13/05 A2996 RMK A01 T01320053  RH  059%=      5-min Rain = 0
KHE1 191510Z 17006KT 13/05 A2996 RMK A01 T01320053  RH  059%=      5-min Rain = 0
KHE1 191511Z 17005KT 13/05 A2996 RMK A01 T01340054  RH  058%=      5-min Rain = 0
KHE1 191512Z 17005KT 14/06 A2996 RMK A01 T01350055  RH  058%=      5-min Rain = 0
KHE1 191513Z 17005KT 14/06 A2996 RMK A01 T01360055  RH  058%=      5-min Rain = 0
KHE1 191514Z 18006KT 14/06 A2996 RMK A01 T01370055  RH  058%=      5-min Rain = 0
KHE1 191515Z 17006KT 14/06 A2997 RMK A01 T01380055  RH  057%=      5-min Rain = 0
KHE1 191516Z 17006KT 14/05 A2997 RMK A01 T01380053  RH  056%=      5-min Rain = 0
KHE1 191517Z 17007KT 14/05 A2997 RMK A01 T01390053  RH  056%=      5-min Rain = 0
KHE1 191518Z 17008KT 14/05 A2997 RMK A01 T01410050  RH  055%=      5-min Rain = 0
KHE1 191519Z 17008KT 14/05 A2997 RMK A01 T01410050  RH  054%=      5-min Rain = 0
KHE1 191520Z 17008KT 14/05 A2997 RMK A01 T01420049  RH  054%=      5-min Rain = 0
KHE1 191521Z 17008KT 14/05 A2997 RMK A01 T01420048  RH  053%=      5-min Rain = 0
KHE1 191522Z 17008KT 14/05 A2997 RMK A01 T01420050  RH  054%=      5-min Rain = 0
KHE1 191523Z 17008KT 14/05 A2997 RMK A01 T01430050  RH  053%=      5-min Rain = 0
KHE1 191524Z 17007KT 14/05 A2997 RMK A01 T01440049  RH  053%=      5-min Rain = 0
KHE1 191525Z 17007KT 14/05 A2997 RMK A01 T01440051  RH  054%=      5-min Rain = 0
KHE1 191526Z 18007KT 14/05 A2997 RMK A01 T01440052  RH  054%=      5-min Rain = 0
KHE1 191527Z 18008KT 15/05 A2997 RMK A01 T01460049  RH  052%=      5-min Rain = 0
KHE1 191528Z 17008KT 15/05 A2997 RMK A01 T01460049  RH  052%=      5-min Rain = 0
KHE1 191529Z 17008KT 15/05 A2997 RMK A01 T01470048  RH  051%=      5-min Rain = 0
KHE1 191530Z 17007KT 15/05 A2997 RMK A01 T01480049  RH  051%=      5-min Rain = 0
KHE1 191531Z 17006KT 15/05 A2997 RMK A01 T01490049  RH  051%=      5-min Rain = 0
KHE1 191532Z 17006KT 15/05 A2997 RMK A01 T01500051  RH  052%=      5-min Rain = 0
KHE1 191533Z 17006KT 15/05 A2997 RMK A01 T01510051  RH  051%=      5-min Rain = 0
KHE1 191534Z 17006KT 15/05 A2997 RMK A01 T01530052  RH  051%=      5-min Rain = 0
KHE1 191535Z 17006KT 15/05 A2997 RMK A01 T01540051  RH  050%=      5-min Rain = 0
KHE1 191536Z 17006KT 16/05 A2997 RMK A01 T01550050  RH  050%=      5-min Rain = 0
KHE1 191537Z 17006KT 16/05 A2997 RMK A01 T01560052  RH  050%=      5-min Rain = 0
KHE1 191538Z 17005KT 16/06 A2997 RMK A01 T01580055  RH  050%=      5-min Rain = 0
KHE1 191539Z 18005KT 16/05 A2997 RMK A01 T01590052  RH  049%=      5-min Rain = 0
KHE1 191540Z 17005KT 16/05 A2997 RMK A01 T01590053  RH  049%=      5-min Rain = 0
KHE1 191541Z 18005KT 16/06 A2997 RMK A01 T01600056  RH  050%=      5-min Rain = 0
KHE1 191542Z 18005KT 16/05 A2997 RMK A01 T01610053  RH  049%=      5-min Rain = 0
KHE1 191543Z 18006KT 16/05 A2997 RMK A01 T01620049  RH  047%=      5-min Rain = 0
KHE1 191544Z 18006KT 16/05 A2997 RMK A01 T01620050  RH  047%=      5-min Rain = 0
KHE1 191545Z 17005KT 16/06 A2997 RMK A01 T01630055  RH  049%=      5-min Rain = 0
KHE1 191546Z 17006KT 17/06 A2997 RMK A01 T01670056  RH  048%=      5-min Rain = 0
KHE1 191547Z 17006KT 17/05 A2997 RMK A01 T01680052  RH  046%=      5-min Rain = 0
KHE1 191548Z 17007KT 17/05 A2997 RMK A01 T01680050  RH  046%=      5-min Rain = 0
KHE1 191549Z 16006KT 17/05 A2997 RMK A01 T01680049  RH  045%=      5-min Rain = 0
KHE1 191550Z 16006KT 17/05 A2997 RMK A01 T01680049  RH  045%=      5-min Rain = 0
KHE1 191551Z 15005KT 17/05 A2997 RMK A01 T01680051  RH  046%=      5-min Rain = 0
KHE1 191552Z 15005KT 17/05 A2997 RMK A01 T01700050  RH  045%=      5-min Rain = 0
KHE1 191553Z 16005KT 17/05 A2997 RMK A01 T01710052  RH  045%=      5-min Rain = 0
KHE1 191554Z 17006KT 17/06 A2997 RMK A01 T01720055  RH  046%=      5-min Rain = 0
KHE1 191555Z 18006KT 17/05 A2997 RMK A01 T01730053  RH  045%=      5-min Rain = 0
KHE1 191556Z 18006KT 17/06 A2997 RMK A01 T01730055  RH  046%=      5-min Rain = 0
KHE1 191557Z 17006KT 17/06 A2997 RMK A01 T01740056  RH  046%=      5-min Rain = 0
KHE1 191558Z 17005KT 18/06 A2997 RMK A01 T01760056  RH  045%=      5-min Rain = 0
KHE1 191559Z 15005KT 18/06 A2997 RMK A01 T01760056  RH  045%=      5-min Rain = 0
KHE1 191600Z 15006KT 18/06 A2997 RMK A01 T01770055  RH  045%=      5-min Rain = 0
KHE1 191601Z 16006KT 18/05 A2997 RMK A01 T01770052  RH  044%=      5-min Rain = 0
KHE1 191602Z 16007KT 18/06 A2997 RMK A01 T01780056  RH  045%=      5-min Rain = 0
KHE1 191603Z 17007KT 18/05 A2997 RMK A01 T01790053  RH  043%=      5-min Rain = 0
KHE1 191604Z 16006KT 18/05 A2997 RMK A01 T01790053  RH  043%=      5-min Rain = 0
KHE1 191605Z 16007KT 18/05 A2997 RMK A01 T01790050  RH  042%=      5-min Rain = 0
KHE1 191606Z 16006KT 18/05 A2997 RMK A01 T01790050  RH  043%=      5-min Rain = 0
KHE1 191607Z 16006KT 18/05 A2997 RMK A01 T01800051  RH  043%=      5-min Rain = 0
KHE1 191608Z 15006KT 18/05 A2997 RMK A01 T01800052  RH  043%=      5-min Rain = 0
KHE1 191609Z 15006KT 18/05 A2997 RMK A01 T01820053  RH  043%=      5-min Rain = 0
KHE1 191610Z 15007KT 18/05 A2997 RMK A01 T01830053  RH  042%=      5-min Rain = 0
KHE1 191611Z 15006KT 18/05 A2997 RMK A01 T01840052  RH  042%=      5-min Rain = 0
KHE1 191612Z 16007KT 19/05 A2997 RMK A01 T01860051  RH  041%=      5-min Rain = 0
KHE1 191613Z 16007KT 19/05 A2997 RMK A01 T01860051  RH  041%=      5-min Rain = 0
KHE1 191614Z 16007KT 19/05 A2997 RMK A01 T01850052  RH  041%=      5-min Rain = 0
KHE1 191615Z 16006KT 19/05 A2997 RMK A01 T01850051  RH  041%=      5-min Rain = 0
KHE1 191616Z 16006KT 19/05 A2997 RMK A01 T01850050  RH  041%=      5-min Rain = 0
KHE1 191617Z 16006KT 19/05 A2997 RMK A01 T01860051  RH  041%=      5-min Rain = 0
KHE1 191618Z 15004KT 19/05 A2997 RMK A01 T01870051  RH  041%=      5-min Rain = 0
KHE1 191619Z 16006KT 19/05 A2997 RMK A01 T01880054  RH  041%=      5-min Rain = 0
KHE1 191620Z 16006KT 19/05 A2997 RMK A01 T01900051  RH  040%=      5-min Rain = 0
KHE1 191621Z 16006KT 19/05 A2997 RMK A01 T01910051  RH  040%=      5-min Rain = 0
KHE1 191622Z 16006KT 19/05 A2997 RMK A01 T01920048  RH  039%=      5-min Rain = 0
KHE1 191623Z 16007KT 19/05 A2997 RMK A01 T01920048  RH  039%=      5-min Rain = 0
KHE1 191624Z 16006KT 19/05 A2997 RMK A01 T01910047  RH  039%=      5-min Rain = 0
KHE1 191625Z 16006KT 19/05 A2997 RMK A01 T01920047  RH  038%=      5-min Rain = 0
KHE1 191626Z 17005KT 19/05 A2997 RMK A01 T01930046  RH  038%=      5-min Rain = 0
KHE1 191627Z 17007KT 19/05 A2997 RMK A01 T01940050  RH  039%=      5-min Rain = 0
KHE1 191628Z 17007KT 19/05 A2997 RMK A01 T01940046  RH  038%=      5-min Rain = 0
KHE1 191629Z 17007KT 19/05 A2997 RMK A01 T01930050  RH  039%=      5-min Rain = 0
KHE1 191630Z 17006KT 19/05 A2997 RMK A01 T01930047  RH  038%=      5-min Rain = 0
KHE1 191631Z 17007KT 19/05 A2997 RMK A01 T01940049  RH  039%=      5-min Rain = 0
KHE1 191632Z 17007KT 19/05 A2997 RMK A01 T01940049  RH  038%=      5-min Rain = 0
KHE1 191633Z 17008KT 19/05 A2997 RMK A01 T01940051  RH  039%=      5-min Rain = 0
KHE1 191634Z 16006KT 20/05 A2997 RMK A01 T01950049  RH  038%=      5-min Rain = 0
KHE1 191635Z 17007KT 20/05 A2997 RMK A01 T01950050  RH  038%=      5-min Rain = 0
KHE1 191636Z 17007KT 20/05 A2997 RMK A01 T01950048  RH  038%=      5-min Rain = 0
KHE1 191637Z 18007KT 19/05 A2997 RMK A01 T01940050  RH  039%=      5-min Rain = 0
KHE1 191638Z 17007KT 19/05 A2997 RMK A01 T01940050  RH  039%=      5-min Rain = 0
KHE1 191639Z 18007KT 20/05 A2997 RMK A01 T01950049  RH  038%=      5-min Rain = 0
KHE1 191640Z 18007KT 20/05 A2997 RMK A01 T01950050  RH  039%=      5-min Rain = 0
KHE1 191641Z 18006KT 19/05 A2997 RMK A01 T01940051  RH  039%=      5-min Rain = 0
KHE1 191642Z 18006KT 20/05 A2997 RMK A01 T01950050  RH  039%=      5-min Rain = 0
KHE1 191643Z 18007KT 20/05 A2997 RMK A01 T01950049  RH  038%=      5-min Rain = 0
KHE1 191644Z 19007KT 20/05 A2997 RMK A01 T01950049  RH  038%=      5-min Rain = 0
KHE1 191645Z 20006KT 20/05 A2997 RMK A01 T01960047  RH  037%=      5-min Rain = 0
KHE1 191646Z 18006KT 20/05 A2996 RMK A01 T01960050  RH  038%=      5-min Rain = 0
KHE1 191647Z 19005KT 20/05 A2996 RMK A01 T01970051  RH  038%=      5-min Rain = 0
KHE1 191648Z 21005KT 20/05 A2996 RMK A01 T01980052  RH  038%=      5-min Rain = 0
KHE1 191649Z 18006KT 20/05 A2996 RMK A01 T01990053  RH  038%=      5-min Rain = 0
KHE1 191650Z 18007KT 20/05 A2996 RMK A01 T02000051  RH  038%=      5-min Rain = 0
KHE1 191651Z 18007KT 20/05 A2996 RMK A01 T02000053  RH  038%=      5-min Rain = 0
KHE1 191652Z 19006KT 20/05 A2996 RMK A01 T02010054  RH  038%=      5-min Rain = 0
KHE1 191653Z 21006KT 20/05 A2996 RMK A01 T02020051  RH  037%=      5-min Rain = 0
KHE1 191654Z 19005KT 20/05 A2996 RMK A01 T02020054  RH  038%=      5-min Rain = 0
KHE1 191655Z 20006KT 20/05 A2996 RMK A01 T02040053  RH  037%=      5-min Rain = 0
KHE1 191656Z 19006KT 20/05 A2996 RMK A01 T02040051  RH  037%=      5-min Rain = 0
KHE1 191657Z 20008KT 20/05 A2996 RMK A01 T02030052  RH  037%=      5-min Rain = 0
KHE1 191658Z 21009KT 20/05 A2996 RMK A01 T02030051  RH  037%=      5-min Rain = 0
KHE1 191659Z 21008KT 20/05 A2996 RMK A01 T02040051  RH  037%=      5-min Rain = 0
KHE1 191700Z 22007KT 20/05 A2996 RMK A01 T02030052  RH  037%=      5-min Rain = 0
KHE1 191701Z 22006KT 20/05 A2996 RMK A01 T02030053  RH  037%=      5-min Rain = 0
KHE1 191702Z 19007KT 21/06 A2996 RMK A01 T02050056  RH  038%=      5-min Rain = 0
KHE1 191703Z 20008KT 21/05 A2996 RMK A01 T02070054  RH  037%=      5-min Rain = 0
KHE1 191704Z 20007KT 21/05 A2996 RMK A01 T02070053  RH  037%=      5-min Rain = 0
KHE1 191705Z 21006KT 21/06 A2996 RMK A01 T02070056  RH  037%=      5-min Rain = 0
KHE1 191706Z 22008KT 21/06 A2996 RMK A01 T02090056  RH  037%=      5-min Rain = 0
KHE1 191707Z 21007KT 21/06 A2996 RMK A01 T02090057  RH  037%=      5-min Rain = 0
KHE1 191708Z 20006KT 21/06 A2996 RMK A01 T02100056  RH  037%=      5-min Rain = 0
KHE1 191709Z 20005KT 21/06 A2996 RMK A01 T02100056  RH  037%=      5-min Rain = 0
KHE1 191710Z 20009KT 21/06 A2995 RMK A01 T02110055  RH  036%=      5-min Rain = 0
KHE1 191711Z 21009KT 21/06 A2995 RMK A01 T02100055  RH  036%=      5-min Rain = 0
KHE1 191712Z 21009KT 21/05 A2995 RMK A01 T02090054  RH  036%=      5-min Rain = 0
KHE1 191713Z 21010KT 21/06 A2995 RMK A01 T02080055  RH  037%=      5-min Rain = 0
KHE1 191714Z 21008KT 21/06 A2995 RMK A01 T02080055  RH  037%=      5-min Rain = 0
KHE1 191715Z 22009KT 21/06 A2995 RMK A01 T02100056  RH  037%=      5-min Rain = 0
KHE1 191716Z 22008KT 21/06 A2995 RMK A01 T02110056  RH  036%=      5-min Rain = 0
KHE1 191717Z 21006KT 21/06 A2995 RMK A01 T02110055  RH  036%=      5-min Rain = 0
KHE1 191718Z 21007KT 21/06 A2995 RMK A01 T02100057  RH  037%=      5-min Rain = 0
KHE1 191719Z 21008KT 21/06 A2995 RMK A01 T02120059  RH  037%=      5-min Rain = 0
KHE1 191720Z 20008KT 21/06 A2995 RMK A01 T02130057  RH  036%=      5-min Rain = 0
KHE1 191721Z 20007KT 21/06 A2995 RMK A01 T02130056  RH  036%=      5-min Rain = 0
KHE1 191722Z 18010KT 21/06 A2995 RMK A01 T02130057  RH  036%=      5-min Rain = 0
KHE1 191723Z 19008KT 21/06 A2995 RMK A01 T02130057  RH  036%=      5-min Rain = 0
KHE1 191724Z 20005KT 21/06 A2995 RMK A01 T02140058  RH  036%=      5-min Rain = 0
KHE1 191725Z 21008KT 22/06 A2995 RMK A01 T02150059  RH  036%=      5-min Rain = 0
KHE1 191726Z 20005KT 22/06 A2995 RMK A01 T02150057  RH  036%=      5-min Rain = 0
KHE1 191727Z 22006KT 22/06 A2995 RMK A01 T02160061  RH  037%=      5-min Rain = 0
KHE1 191728Z 20006KT 22/06 A2995 RMK A01 T02170063  RH  037%=      5-min Rain = 0
KHE1 191729Z 20009KT 22/06 A2995 RMK A01 T02200061  RH  036%=      5-min Rain = 0
KHE1 191730Z 20010KT 22/06 A2995 RMK A01 T02200059  RH  035%=      5-min Rain = 0
KHE1 191731Z 20010KT 22/06 A2995 RMK A01 T02190058  RH  035%=      5-min Rain = 0
KHE1 191732Z 21009KT 22/06 A2995 RMK A01 T02180059  RH  036%=      5-min Rain = 0
KHE1 191733Z 21010KT 22/06 A2995 RMK A01 T02170059  RH  036%=      5-min Rain = 0
KHE1 191734Z 19008KT 22/06 A2995 RMK A01 T02170058  RH  036%=      5-min Rain = 0
KHE1 191735Z 19008KT 22/06 A2994 RMK A01 T02170059  RH  036%=      5-min Rain = 0
KHE1 191736Z 20009KT 22/06 A2994 RMK A01 T02180060  RH  036%=      5-min Rain = 0
KHE1 191737Z 20008KT 22/06 A2994 RMK A01 T02190058  RH  035%=      5-min Rain = 0
KHE1 191738Z 20009KT 22/06 A2994 RMK A01 T02180058  RH  035%=      5-min Rain = 0
KHE1 191739Z 20007KT 22/06 A2994 RMK A01 T02170057  RH  035%=      5-min Rain = 0
KHE1 191740Z 19008KT 22/06 A2994 RMK A01 T02170058  RH  036%=      5-min Rain = 0
KHE1 191741Z 19011G17KT 22/06 A2994 RMK A01 T02180061  RH  036%=      5-min Rain = 0
KHE1 191742Z 21008KT 22/06 A2994 RMK A01 T02210061  RH  035%=      5-min Rain = 0
KHE1 191743Z 19009KT 22/06 A2994 RMK A01 T02220060  RH  035%=      5-min Rain = 0
KHE1 191744Z 20009KT 22/06 A2994 RMK A01 T02220060  RH  035%=      5-min Rain = 0
KHE1 191745Z 20011KT 22/06 A2994 RMK A01 T02220060  RH  035%=      5-min Rain = 0
KHE1 191746Z 20009KT 22/06 A2994 RMK A01 T02220058  RH  035%=      5-min Rain = 0
KHE1 191747Z 21007KT 22/06 A2994 RMK A01 T02190059  RH  035%=      5-min Rain = 0
KHE1 191748Z 21012KT 22/06 A2994 RMK A01 T02200061  RH  036%=      5-min Rain = 0
KHE1 191749Z 21011KT 22/06 A2994 RMK A01 T02210059  RH  035%=      5-min Rain = 0
KHE1 191750Z 21010KT 22/06 A2994 RMK A01 T02200060  RH  035%=      5-min Rain = 0
KHE1 191751Z 19008KT 22/06 A2994 RMK A01 T02200060  RH  035%=      5-min Rain = 0
KHE1 191752Z 19008KT 22/06 A2994 RMK A01 T02200061  RH  036%=      5-min Rain = 0
KHE1 191753Z 20010KT 22/06 A2994 RMK A01 T02200059  RH  035%=      5-min Rain = 0
KHE1 191754Z 20009KT 22/06 A2994 RMK A01 T02190059  RH  035%=      5-min Rain = 0
KHE1 191755Z 20010KT 22/06 A2994 RMK A01 T02180060  RH  036%=      5-min Rain = 0
KHE1 191756Z 20010KT 22/06 A2994 RMK A01 T02170059  RH  036%=      5-min Rain = 0
KHE1 191757Z 19009KT 22/06 A2994 RMK A01 T02170059  RH  036%=      5-min Rain = 0
KHE1 191758Z 19009KT 22/06 A2993 RMK A01 T02170060  RH  036%=      5-min Rain = 0
KHE1 191759Z 19008KT 22/06 A2993 RMK A01 T02170061  RH  036%=      5-min Rain = 0
KHE1 191800Z 20009KT 22/06 A2993 RMK A01 T02180061  RH  036%=      5-min Rain = 0
KHE1 191801Z 20009KT 22/06 A2993 RMK A01 T02180059  RH  036%=      5-min Rain = 0
KHE1 191802Z 21008KT 22/06 A2993 RMK A01 T02180060  RH  036%=      5-min Rain = 0
KHE1 191803Z 20009KT 22/06 A2993 RMK A01 T02180060  RH  036%=      5-min Rain = 0
KHE1 191804Z 18009KT 22/06 A2993 RMK A01 T02180061  RH  036%=      5-min Rain = 0
KHE1 191805Z 18010KT 22/06 A2993 RMK A01 T02200061  RH  036%=      5-min Rain = 0
KHE1 191806Z 19008KT 22/06 A2993 RMK A01 T02210059  RH  035%=      5-min Rain = 0
KHE1 191807Z 19006KT 22/06 A2993 RMK A01 T02200061  RH  036%=      5-min Rain = 0
KHE1 191808Z 19009KT 22/06 A2993 RMK A01 T02220063  RH  036%=      5-min Rain = 0
KHE1 191809Z 20007KT 22/06 A2993 RMK A01 T02230063  RH  035%=      5-min Rain = 0
KHE1 191810Z 20009KT 22/06 A2993 RMK A01 T02240061  RH  035%=      5-min Rain = 0
KHE1 191811Z 20010KT 22/06 A2993 RMK A01 T02240061  RH  035%=      5-min Rain = 0
KHE1 191812Z 19011KT 22/06 A2993 RMK A01 T02230062  RH  035%=      5-min Rain = 0
KHE1 191813Z 19010KT 22/06 A2993 RMK A01 T02220061  RH  035%=      5-min Rain = 0
KHE1 191814Z 19010KT 22/06 A2993 RMK A01 T02210062  RH  036%=      5-min Rain = 0
KHE1 191815Z 20010KT 22/06 A2993 RMK A01 T02220062  RH  036%=      5-min Rain = 0
KHE1 191816Z 19010KT 22/06 A2993 RMK A01 T02220062  RH  035%=      5-min Rain = 0
KHE1 191817Z 20010KT 22/06 A2993 RMK A01 T02220062  RH  036%=      5-min Rain = 0
KHE1 191818Z 21010KT 22/06 A2993 RMK A01 T02210062  RH  036%=      5-min Rain = 0
KHE1 191819Z 21009KT 22/06 A2992 RMK A01 T02210063  RH  036%=      5-min Rain = 0
KHE1 191820Z 20008KT 22/06 A2992 RMK A01 T02230063  RH  035%=      5-min Rain = 0
KHE1 191821Z 20007KT 22/06 A2992 RMK A01 T02240062  RH  035%=      5-min Rain = 0
KHE1 191822Z 19009KT 23/06 A2992 RMK A01 T02250064  RH  035%=      5-min Rain = 0
KHE1 191823Z 19007KT 23/06 A2992 RMK A01 T02260062  RH  035%=      5-min Rain = 0
KHE1 191824Z 19011KT 23/06 A2992 RMK A01 T02260064  RH  035%=      5-min Rain = 0
KHE1 191825Z 19010KT 23/06 A2992 RMK A01 T02260062  RH  034%=      5-min Rain = 0
KHE1 191826Z 19007KT 23/06 A2992 RMK A01 T02250060  RH  034%=      5-min Rain = 0
KHE1 191827Z 21008KT 23/06 A2992 RMK A01 T02250064  RH  035%=      5-min Rain = 0
KHE1 191828Z 20010KT 23/06 A2992 RMK A01 T02270064  RH  035%=      5-min Rain = 0
KHE1 191829Z 18010KT 23/07 A2992 RMK A01 T02300066  RH  035%=      5-min Rain = 0
KHE1 191830Z 19008KT 23/06 A2992 RMK A01 T02310064  RH  034%=      5-min Rain = 0
KHE1 191831Z 21008KT 23/07 A2992 RMK A01 T02310065  RH  034%=      5-min Rain = 0
KHE1 191832Z 21009KT 23/07 A2992 RMK A01 T02320065  RH  034%=      5-min Rain = 0
KHE1 191833Z 19009KT 23/06 A2992 RMK A01 T02320064  RH  034%=      5-min Rain = 0
KHE1 191834Z 19008KT 23/06 A2992 RMK A01 T02340063  RH  033%=      5-min Rain = 0
KHE1 191835Z 19007KT 23/06 A2992 RMK A01 T02340063  RH  033%=      5-min Rain = 0
KHE1 191836Z 20011KT 23/06 A2991 RMK A01 T02340062  RH  033%=      5-min Rain = 0
KHE1 191837Z 19012KT 23/06 A2991 RMK A01 T02340061  RH  033%=      5-min Rain = 0
KHE1 191838Z 19010KT 23/06 A2991 RMK A01 T02340060  RH  033%=      5-min Rain = 0
KHE1 191839Z 19010KT 23/06 A2991 RMK A01 T02340063  RH  033%=      5-min Rain = 0
KHE1 191840Z 20011KT 24/06 A2991 RMK A01 T02360062  RH  032%=      5-min Rain = 0
KHE1 191841Z 20010KT 24/06 A2991 RMK A01 T02370062  RH  032%=      5-min Rain = 0
KHE1 191842Z 20008KT 24/06 A2991 RMK A01 T02370062  RH  032%=      5-min Rain = 0
KHE1 191843Z 20008KT 24/07 A2991 RMK A01 T02380065  RH  033%=      5-min Rain = 0
KHE1 191844Z 20007KT 24/06 A2991 RMK A01 T02400064  RH  032%=      5-min Rain = 0
KHE1 191845Z 19010KT 24/06 A2991 RMK A01 T02400063  RH  032%=      5-min Rain = 0
KHE1 191846Z 19011KT 24/06 A2991 RMK A01 T02390060  RH  032%=      5-min Rain = 0
KHE1 191847Z 19009KT 24/06 A2991 RMK A01 T02380061  RH  032%=      5-min Rain = 0
KHE1 191848Z 18006KT 24/06 A2991 RMK A01 T02370061  RH  032%=      5-min Rain = 0
KHE1 191849Z 18008KT 24/06 A2991 RMK A01 T02390063  RH  032%=      5-min Rain = 0
KHE1 191850Z 19008KT 24/06 A2991 RMK A01 T02390061  RH  032%=      5-min Rain = 0
KHE1 191851Z 20009KT 24/06 A2991 RMK A01 T02380062  RH  032%=      5-min Rain = 0
KHE1 191852Z 18008KT 24/06 A2991 RMK A01 T02400060  RH  031%=      5-min Rain = 0
KHE1 191853Z 18008KT 24/06 A2991 RMK A01 T02390061  RH  032%=      5-min Rain = 0
KHE1 191854Z 19010KT 24/06 A2991 RMK A01 T02390062  RH  032%=      5-min Rain = 0
KHE1 191855Z 20010KT 24/06 A2991 RMK A01 T02390059  RH  031%=      5-min Rain = 0
KHE1 191856Z 20009KT 24/06 A2991 RMK A01 T02360059  RH  032%=      5-min Rain = 0
KHE1 191857Z 21008KT 23/06 A299 RMK A01 T02340060  RH  033%=      5-min Rain = 0
KHE1 191858Z 21006KT 23/06 A299 RMK A01 T02340060  RH  033%=      5-min Rain = 0
KHE1 191859Z 19005KT 24/06 A299 RMK A01 T02350062  RH  033%=      5-min Rain = 0
KHE1 191900Z 17008KT 24/07 A299 RMK A01 T02390066  RH  033%=      5-min Rain = 0
KHE1 191901Z 17008KT 24/06 A299 RMK A01 T02420063  RH  031%=      5-min Rain = 0
KHE1 191902Z 16009KT 24/06 A299 RMK A01 T02430061  RH  031%=      5-min Rain = 0
KHE1 191903Z 17010KT 24/06 A299 RMK A01 T02430063  RH  032%=      5-min Rain = 0
KHE1 191904Z 18010KT 24/06 A299 RMK A01 T02430061  RH  031%=      5-min Rain = 0
KHE1 191905Z 17009KT 24/06 A299 RMK A01 T02420062  RH  031%=      5-min Rain = 0
KHE1 191906Z 16009KT 24/06 A299 RMK A01 T02420062  RH  031%=      5-min Rain = 0
KHE1 191907Z 15010KT 24/06 A299 RMK A01 T02410060  RH  031%=      5-min Rain = 0
KHE1 191908Z 15008KT 24/06 A299 RMK A01 T02400061  RH  031%=      5-min Rain = 0
KHE1 191909Z 17009KT 24/06 A299 RMK A01 T02390060  RH  032%=      5-min Rain = 0
KHE1 191910Z 17011KT 24/06 A299 RMK A01 T02380062  RH  032%=      5-min Rain = 0
KHE1 191911Z 17010KT 24/06 A299 RMK A01 T02370063  RH  033%=      5-min Rain = 0
KHE1 191912Z 17010KT 24/06 A299 RMK A01 T02360061  RH  032%=      5-min Rain = 0
KHE1 191913Z 16010KT 24/06 A299 RMK A01 T02350058  RH  032%=      5-min Rain = 0
KHE1 191914Z 15009KT 24/06 A299 RMK A01 T02360059  RH  032%=      5-min Rain = 0
KHE1 191915Z 17009KT 24/06 A299 RMK A01 T02380060  RH  032%=      5-min Rain = 0
KHE1 191916Z 18010KT 24/06 A2989 RMK A01 T02400058  RH  031%=      5-min Rain = 0
KHE1 191917Z 18009KT 24/06 A2989 RMK A01 T02420059  RH  031%=      5-min Rain = 0
KHE1 191918Z 18009KT 24/06 A2989 RMK A01 T02420062  RH  031%=      5-min Rain = 0
KHE1 191919Z 17008KT 24/06 A2989 RMK A01 T02430061  RH  031%=      5-min Rain = 0
KHE1 191920Z 16010KT 25/06 A2989 RMK A01 T02450063  RH  031%=      5-min Rain = 0
KHE1 191921Z 16009KT 25/06 A2989 RMK A01 T02460060  RH  030%=      5-min Rain = 0
KHE1 191922Z 17009KT 25/06 A2989 RMK A01 T02460061  RH  031%=      5-min Rain = 0
KHE1 191923Z 16010KT 25/06 A2989 RMK A01 T02460061  RH  030%=      5-min Rain = 0
KHE1 191924Z 18009KT 25/06 A2989 RMK A01 T02450062  RH  031%=      5-min Rain = 0
KHE1 191925Z 18012KT 24/06 A2989 RMK A01 T02410059  RH  031%=      5-min Rain = 0
KHE1 191926Z 17012KT 24/06 A2989 RMK A01 T02380060  RH  032%=      5-min Rain = 0
KHE1 191927Z 16010KT 24/06 A2989 RMK A01 T02360059  RH  032%=      5-min Rain = 0
KHE1 191928Z 17010KT 23/06 A2989 RMK A01 T02340059  RH  032%=      5-min Rain = 0
KHE1 191929Z 16008KT 23/06 A2989 RMK A01 T02340060  RH  032%=      5-min Rain = 0
KHE1 191930Z 16011KT 23/06 A2989 RMK A01 T02340060  RH  032%=      5-min Rain = 0
KHE1 191931Z 16011KT 24/06 A2989 RMK A01 T02370059  RH  032%=      5-min Rain = 0
KHE1 191932Z 16010KT 24/06 A2989 RMK A01 T02390058  RH  031%=      5-min Rain = 0
KHE1 191933Z 16009KT 24/06 A2989 RMK A01 T02390058  RH  031%=      5-min Rain = 0
KHE1 191934Z 15009KT 24/06 A2989 RMK A01 T02380059  RH  031%=      5-min Rain = 0
KHE1 191935Z 16008KT 24/06 A2989 RMK A01 T02380058  RH  031%=      5-min Rain = 0
KHE1 191936Z 15009KT 24/06 A2989 RMK A01 T02390061  RH  032%=      5-min Rain = 0
KHE1 191937Z 16008KT 24/06 A2989 RMK A01 T02400059  RH  031%=      5-min Rain = 0
KHE1 191938Z 16007KT 24/06 A2989 RMK A01 T02410060  RH  031%=      5-min Rain = 0
KHE1 191939Z 16008KT 24/06 A2988 RMK A01 T02410062  RH  032%=      5-min Rain = 0
KHE1 191940Z 16010KT 24/06 A2988 RMK A01 T02420060  RH  031%=      5-min Rain = 0
KHE1 191941Z 16012KT 24/06 A2988 RMK A01 T02440059  RH  030%=      5-min Rain = 0
KHE1 191942Z 16013KT 25/06 A2988 RMK A01 T02460055  RH  029%=      5-min Rain = 0
KHE1 191943Z 17011KT 25/05 A2988 RMK A01 T02450054  RH  029%=      5-min Rain = 0
KHE1 191944Z 17010KT 24/06 A2988 RMK A01 T02440055  RH  030%=      5-min Rain = 0
KHE1 191945Z 17010KT 24/05 A2988 RMK A01 T02430054  RH  030%=      5-min Rain = 0
KHE1 191946Z 15012KT 24/05 A2988 RMK A01 T02420051  RH  029%=      5-min Rain = 0
KHE1 191947Z 16012KT 24/05 A2988 RMK A01 T02420049  RH  029%=      5-min Rain = 0
KHE1 191948Z 15012KT 24/05 A2988 RMK A01 T02410050  RH  029%=      5-min Rain = 0
KHE1 191949Z 16010KT 24/05 A2988 RMK A01 T02430050  RH  029%=      5-min Rain = 0
KHE1 191950Z 16013KT 25/05 A2988 RMK A01 T02450049  RH  028%=      5-min Rain = 0
KHE1 191951Z 17013KT 25/05 A2988 RMK A01 T02460048  RH  028%=      5-min Rain = 0
KHE1 191952Z 17010KT 25/05 A2988 RMK A01 T02480049  RH  028%=      5-min Rain = 0
KHE1 191953Z 16014KT 25/05 A2987 RMK A01 T02500047  RH  027%=      5-min Rain = 0
KHE1 191954Z 16016G21KT 25/05 A2987 RMK A01 T02520045  RH  026%=      5-min Rain = 0
KHE1 191955Z 19010G15KT 25/05 A2987 RMK A01 T02540051  RH  027%=      5-min Rain = 0
KHE1 191956Z 19010KT 25/05 A2987 RMK A01 T02530053  RH  027%=      5-min Rain = 0
KHE1 191957Z 16011KT 25/05 A2987 RMK A01 T02540048  RH  027%=      5-min Rain = 0
KHE1 191958Z 17014KT 25/04 A2987 RMK A01 T02540043  RH  025%=      5-min Rain = 0
KHE1 191959Z 18012KT 26/04 A2987 RMK A01 T02550040  RH  025%=      5-min Rain = 0
KHE1 192000Z 19013KT 26/04 A2987 RMK A01 T02570041  RH  025%=      5-min Rain = 0
KHE1 192001Z 19014KT 26/04 A2987 RMK A01 T02580038  RH  024%=      5-min Rain = 0
KHE1 192002Z 18017KT 26/04 A2987 RMK A01 T02570036  RH  024%=      5-min Rain = 0
KHE1 192003Z 19016KT 26/04 A2987 RMK A01 T02550040  RH  025%=      5-min Rain = 0
KHE1 192004Z 18016KT 26/04 A2987 RMK A01 T02550041  RH  025%=      5-min Rain = 0
KHE1 192005Z 17013KT 25/04 A2987 RMK A01 T02540041  RH  025%=      5-min Rain = 0
KHE1 192006Z 17013KT 25/04 A2987 RMK A01 T02540043  RH  026%=      5-min Rain = 0
KHE1 192007Z 18011KT 26/04 A2987 RMK A01 T02550043  RH  026%=      5-min Rain = 0
KHE1 192008Z 18011KT 26/05 A2987 RMK A01 T02570047  RH  026%=      5-min Rain = 0
KHE1 192009Z 18010KT 26/04 A2987 RMK A01 T02580043  RH  025%=      5-min Rain = 0
KHE1 192010Z 18012KT 26/04 A2986 RMK A01 T02550041  RH  025%=      5-min Rain = 0
KHE1 192011Z 17010KT 25/05 A2986 RMK A01 T02540045  RH  026%=      5-min Rain = 0
KHE1 192012Z 16015KT 26/04 A2986 RMK A01 T02560043  RH  025%=      5-min Rain = 0
KHE1 192013Z 16014KT 26/04 A2986 RMK A01 T02570043  RH  025%=      5-min Rain = 0
KHE1 192014Z 17013KT 26/04 A2986 RMK A01 T02570042  RH  025%=      5-min Rain = 0
KHE1 192015Z 16013KT 26/04 A2986 RMK A01 T02570044  RH  025%=      5-min Rain = 0
KHE1 192016Z 16014KT 26/05 A2986 RMK A01 T02570045  RH  025%=      5-min Rain = 0
KHE1 192017Z 17016KT 26/04 A2986 RMK A01 T02570044  RH  025%=      5-min Rain = 0
KHE1 192018Z 17015KT 26/04 A2986 RMK A01 T02570044  RH  025%=      5-min Rain = 0
KHE1 192019Z 17015KT 26/05 A2986 RMK A01 T02580045  RH  025%=      5-min Rain = 0
KHE1 192020Z 16015KT 26/05 A2986 RMK A01 T02590046  RH  025%=      5-min Rain = 0
KHE1 192021Z 17015KT 26/05 A2986 RMK A01 T02590046  RH  025%=      5-min Rain = 0
KHE1 192022Z 18013KT 26/05 A2986 RMK A01 T02580046  RH  026%=      5-min Rain = 0
KHE1 192023Z 17014KT 26/05 A2986 RMK A01 T02570047  RH  026%=      5-min Rain = 0
KHE1 192024Z 16013KT 26/05 A2986 RMK A01 T02580047  RH  026%=      5-min Rain = 0
KHE1 192025Z 16010KT 26/05 A2986 RMK A01 T02580047  RH  026%=      5-min Rain = 0
KHE1 192026Z 16012KT 26/05 A2986 RMK A01 T02600049  RH  026%=      5-min Rain = 0
KHE1 192027Z 15015KT 26/05 A2986 RMK A01 T02600049  RH  026%=      5-min Rain = 0
KHE1 192028Z 15014KT 26/05 A2986 RMK A01 T02590048  RH  026%=      5-min Rain = 0
KHE1 192029Z 16012KT 26/05 A2986 RMK A01 T02580050  RH  026%=      5-min Rain = 0
KHE1 192030Z 15012KT 26/05 A2985 RMK A01 T02590050  RH  026%=      5-min Rain = 0
KHE1 192031Z 15012KT 26/05 A2985 RMK A01 T02590050  RH  026%=      5-min Rain = 0
KHE1 192032Z 14014KT 26/05 A2985 RMK A01 T02590051  RH  026%=      5-min Rain = 0
KHE1 192033Z 15011KT 26/05 A2985 RMK A01 T02580050  RH  026%=      5-min Rain = 0
KHE1 192034Z 15011KT 26/05 A2985 RMK A01 T02570051  RH  027%=      5-min Rain = 0
KHE1 192035Z 16013KT 26/05 A2985 RMK A01 T02580050  RH  026%=      5-min Rain = 0
KHE1 192036Z 16013KT 26/05 A2985 RMK A01 T02580049  RH  026%=      5-min Rain = 0
KHE1 192037Z 16012KT 26/05 A2985 RMK A01 T02570051  RH  027%=      5-min Rain = 0
KHE1 192038Z 14012KT 26/05 A2985 RMK A01 T02590051  RH  026%=      5-min Rain = 0
KHE1 192039Z 15013KT 26/05 A2985 RMK A01 T02590054  RH  027%=      5-min Rain = 0
KHE1 192040Z 15015KT 26/05 A2985 RMK A01 T02600053  RH  026%=      5-min Rain = 0
KHE1 192041Z 15013KT 26/05 A2985 RMK A01 T02600053  RH  027%=      5-min Rain = 0
KHE1 192042Z 16011KT 26/05 A2985 RMK A01 T02580053  RH  027%=      5-min Rain = 0
KHE1 192043Z 16011KT 26/05 A2985 RMK A01 T02580052  RH  027%=      5-min Rain = 0
KHE1 192044Z 16012KT 26/05 A2985 RMK A01 T02590054  RH  027%=      5-min Rain = 0
KHE1 192045Z 17013KT 26/05 A2985 RMK A01 T02610053  RH  026%=      5-min Rain = 0
KHE1 192046Z 17010KT 26/05 A2985 RMK A01 T02590052  RH  026%=      5-min Rain = 0
KHE1 192047Z 17012KT 26/06 A2985 RMK A01 T02590055  RH  027%=      5-min Rain = 0
KHE1 192048Z 16013KT 26/05 A2985 RMK A01 T02590053  RH  027%=      5-min Rain = 0
KHE1 192049Z 15013KT 26/05 A2985 RMK A01 T02590054  RH  027%=      5-min Rain = 0
KHE1 192050Z 15013KT 26/05 A2985 RMK A01 T02580053  RH  027%=      5-min Rain = 0
KHE1 192051Z 16016KT 26/05 A2984 RMK A01 T02580053  RH  027%=      5-min Rain = 0
KHE1 192052Z 16013KT 26/05 A2984 RMK A01 T02580051  RH  027%=      5-min Rain = 0
KHE1 192053Z 15012KT 26/05 A2984 RMK A01 T02580054  RH  027%=      5-min Rain = 0
KHE1 192054Z 16013KT 26/06 A2985 RMK A01 T02600055  RH  027%=      5-min Rain = 0
KHE1 192055Z 16013KT 26/06 A2984 RMK A01 T02610055  RH  027%=      5-min Rain = 0
KHE1 192056Z 17013KT 26/05 A2985 RMK A01 T02610053  RH  026%=      5-min Rain = 0
KHE1 192057Z 16010KT 26/05 A2985 RMK A01 T02600054  RH  027%=      5-min Rain = 0
KHE1 192058Z 15011KT 26/06 A2985 RMK A01 T02600056  RH  027%=      5-min Rain = 0
KHE1 192059Z 15011KT 26/06 A2984 RMK A01 T02600055  RH  027%=      5-min Rain = 0
KHE1 192100Z 16011KT 26/06 A2984 RMK A01 T02600057  RH  027%=      5-min Rain = 0
KHE1 192101Z 16012KT 26/06 A2985 RMK A01 T02620055  RH  027%=      5-min Rain = 0
KHE1 192102Z 17012KT 26/06 A2984 RMK A01 T02620057  RH  027%=      5-min Rain = 0
KHE1 192103Z 17012KT 26/06 A2985 RMK A01 T02620055  RH  027%=      5-min Rain = 0
KHE1 192104Z 16012KT 26/05 A2984 RMK A01 T02610054  RH  027%=      5-min Rain = 0
KHE1 192105Z 16013KT 26/06 A2984 RMK A01 T02600055  RH  027%=      5-min Rain = 0
KHE1 192106Z 16013KT 26/05 A2984 RMK A01 T02600054  RH  027%=      5-min Rain = 0
KHE1 192107Z 15012KT 26/05 A2984 RMK A01 T02600054  RH  027%=      5-min Rain = 0
KHE1 192108Z 15016KT 26/05 A2984 RMK A01 T02600052  RH  026%=      5-min Rain = 0
KHE1 192109Z 16015KT 26/05 A2984 RMK A01 T02600052  RH  026%=      5-min Rain = 0
KHE1 192110Z 16012KT 26/05 A2984 RMK A01 T02600053  RH  027%=      5-min Rain = 0
KHE1 192111Z 16012KT 26/05 A2984 RMK A01 T02600053  RH  026%=      5-min Rain = 0
KHE1 192112Z 16010KT 26/05 A2984 RMK A01 T02600052  RH  026%=      5-min Rain = 0
KHE1 192113Z 15013KT 26/06 A2984 RMK A01 T02610056  RH  027%=      5-min Rain = 0
KHE1 192114Z 15015KT 26/05 A2984 RMK A01 T02610054  RH  027%=      5-min Rain = 0
KHE1 192115Z 15012KT 26/06 A2984 RMK A01 T02600055  RH  027%=      5-min Rain = 0
KHE1 192116Z 16011KT 26/05 A2984 RMK A01 T02600054  RH  027%=      5-min Rain = 0
KHE1 192117Z 17011KT 26/06 A2984 RMK A01 T02600055  RH  027%=      5-min Rain = 0
KHE1 192118Z 16013KT 26/05 A2984 RMK A01 T02600052  RH  026%=      5-min Rain = 0
KHE1 192119Z 17011KT 26/05 A2984 RMK A01 T02600051  RH  026%=      5-min Rain = 0
KHE1 192120Z 16013KT 26/05 A2984 RMK A01 T02620053  RH  026%=      5-min Rain = 0
KHE1 192121Z 15014KT 26/05 A2984 RMK A01 T02620052  RH  026%=      5-min Rain = 0
KHE1 192122Z 15013KT 26/05 A2983 RMK A01 T02600052  RH  026%=      5-min Rain = 0
KHE1 192123Z 14013KT 26/05 A2983 RMK A01 T02590051  RH  026%=      5-min Rain = 0
KHE1 192124Z 14013KT 26/05 A2983 RMK A01 T02590050  RH  026%=      5-min Rain = 0
KHE1 192125Z 15013KT 26/05 A2983 RMK A01 T02590050  RH  026%=      5-min Rain = 0
KHE1 192126Z 15011KT 26/05 A2983 RMK A01 T02600051  RH  026%=      5-min Rain = 0
KHE1 192127Z 15011KT 26/05 A2983 RMK A01 T02610053  RH  026%=      5-min Rain = 0
KHE1 192128Z 15011KT 26/05 A2983 RMK A01 T02620052  RH  026%=      5-min Rain = 0
KHE1 192129Z 15010KT 26/05 A2983 RMK A01 T02620052  RH  026%=      5-min Rain = 0
KHE1 192130Z 14011KT 26/05 A2983 RMK A01 T02620053  RH  026%=      5-min Rain = 0
KHE1 192131Z 15012KT 26/05 A2983 RMK A01 T02610051  RH  026%=      5-min Rain = 0
KHE1 192132Z 15012KT 26/05 A2983 RMK A01 T02600050  RH  026%=      5-min Rain = 0
KHE1 192133Z 15015KT 26/05 A2983 RMK A01 T02600051  RH  026%=      5-min Rain = 0
KHE1 192134Z 16013KT 26/05 A2983 RMK A01 T02600048  RH  026%=      5-min Rain = 0
KHE1 192135Z 16013KT 26/05 A2983 RMK A01 T02600048  RH  026%=      5-min Rain = 0
KHE1 192136Z 15012KT 26/05 A2983 RMK A01 T02610049  RH  026%=      5-min Rain = 0
KHE1 192137Z 14011KT 26/05 A2983 RMK A01 T02620050  RH  026%=      5-min Rain = 0
KHE1 192138Z 14012KT 26/05 A2983 RMK A01 T02620046  RH  025%=      5-min Rain = 0
KHE1 192139Z 14014KT 26/04 A2983 RMK A01 T02620044  RH  024%=      5-min Rain = 0
KHE1 192140Z 15013KT 26/05 A2983 RMK A01 T02620046  RH  025%=      5-min Rain = 0
KHE1 192141Z 15012KT 26/05 A2983 RMK A01 T02620047  RH  025%=      5-min Rain = 0
KHE1 192142Z 14012KT 26/05 A2983 RMK A01 T02620048  RH  025%=      5-min Rain = 0
KHE1 192143Z 15015KT 26/04 A2983 RMK A01 T02620042  RH  024%=      5-min Rain = 0
KHE1 192144Z 15014KT 26/04 A2983 RMK A01 T02630040  RH  024%=      5-min Rain = 0
KHE1 192145Z 16010KT 26/04 A2983 RMK A01 T02620042  RH  024%=      5-min Rain = 0
KHE1 192146Z 18012KT 26/04 A2983 RMK A01 T02630043  RH  024%=      5-min Rain = 0
KHE1 192147Z 19016KT 26/03 A2983 RMK A01 T02640030  RH  022%=      5-min Rain = 0
KHE1 192148Z 18015KT 26/03 A2983 RMK A01 T02620027  RH  022%=      5-min Rain = 0
KHE1 192149Z 18014KT 26/03 A2983 RMK A01 T02620028  RH  022%=      5-min Rain = 0
KHE1 192150Z 18014KT 26/03 A2983 RMK A01 T02610027  RH  022%=      5-min Rain = 0
KHE1 192151Z 17014KT 26/03 A2983 RMK A01 T02610028  RH  022%=      5-min Rain = 0
KHE1 192152Z 18015KT 26/03 A2982 RMK A01 T02610028  RH  022%=      5-min Rain = 0
KHE1 192153Z 18015KT 26/03 A2982 RMK A01 T02610026  RH  022%=      5-min Rain = 0
KHE1 192154Z 18014KT 26/03 A2982 RMK A01 T02610026  RH  022%=      5-min Rain = 0
KHE1 192155Z 17016KT 26/03 A2982 RMK A01 T02610025  RH  022%=      5-min Rain = 0
KHE1 192156Z 16014KT 26/02 A2982 RMK A01 T02610021  RH  021%=      5-min Rain = 0
KHE1 192157Z 17014KT 26/02 A2982 RMK A01 T02610024  RH  022%=      5-min Rain = 0
KHE1 192158Z 17017KT 26/02 A2982 RMK A01 T02610024  RH  021%=      5-min Rain = 0
KHE1 192159Z 17016KT 26/02 A2982 RMK A01 T02610023  RH  021%=      5-min Rain = 0
KHE1 192200Z 18013KT 26/03 A2982 RMK A01 T02610025  RH  022%=      5-min Rain = 0
KHE1 192201Z 17018KT 26/02 A2982 RMK A01 T02600023  RH  021%=      5-min Rain = 0
KHE1 192202Z 17014KT 26/02 A2982 RMK A01 T02600022  RH  021%=      5-min Rain = 0
KHE1 192203Z 18016KT 26/02 A2982 RMK A01 T02590023  RH  021%=      5-min Rain = 0
KHE1 192204Z 18017KT 26/02 A2982 RMK A01 T02590021  RH  021%=      5-min Rain = 0
KHE1 192205Z 18017KT 26/02 A2982 RMK A01 T02580021  RH  021%=      5-min Rain = 0
KHE1 192206Z 18016KT 26/02 A2982 RMK A01 T02580022  RH  022%=      5-min Rain = 0
KHE1 192207Z 18016KT 26/02 A2982 RMK A01 T02580023  RH  022%=      5-min Rain = 0
KHE1 192208Z 18015KT 26/02 A2982 RMK A01 T02580022  RH  022%=      5-min Rain = 0
KHE1 192209Z 18015KT 26/02 A2982 RMK A01 T02580024  RH  022%=      5-min Rain = 0
KHE1 192210Z 18016KT 26/02 A2982 RMK A01 T02570022  RH  022%=      5-min Rain = 0
KHE1 192211Z 18012KT 26/02 A2982 RMK A01 T02570024  RH  022%=      5-min Rain = 0
KHE1 192212Z 18014KT 26/02 A2982 RMK A01 T02570024  RH  022%=      5-min Rain = 0
KHE1 192213Z 18012KT 26/02 A2982 RMK A01 T02570022  RH  022%=      5-min Rain = 0
KHE1 192214Z 17012KT 26/03 A2982 RMK A01 T02570026  RH  022%=      5-min Rain = 0
KHE1 192215Z 17014KT 26/02 A2982 RMK A01 T02560024  RH  022%=      5-min Rain = 0
KHE1 192216Z 17012KT 26/02 A2982 RMK A01 T02560024  RH  022%=      5-min Rain = 0
KHE1 192217Z 17016KT 26/03 A2982 RMK A01 T02560025  RH  022%=      5-min Rain = 0
KHE1 192218Z 17015KT 26/02 A2982 RMK A01 T02560024  RH  022%=      5-min Rain = 0
KHE1 192219Z 18014KT 26/02 A2982 RMK A01 T02550024  RH  022%=      5-min Rain = 0
KHE1 192220Z 18014G19KT 25/03 A2982 RMK A01 T02540025  RH  023%=      5-min Rain = 0
KHE1 192221Z 17016KT 25/03 A2982 RMK A01 T02540025  RH  023%=      5-min Rain = 0
KHE1 192222Z 18016KT 25/03 A2982 RMK A01 T02530025  RH  023%=      5-min Rain = 0
KHE1 192223Z 18014KT 25/03 A2982 RMK A01 T02540025  RH  023%=      5-min Rain = 0
KHE1 192224Z 18014KT 25/03 A2982 RMK A01 T02530025  RH  023%=      5-min Rain = 0
KHE1 192225Z 18013KT 25/03 A2982 RMK A01 T02530026  RH  023%=      5-min Rain = 0
KHE1 192226Z 18012KT 25/03 A2982 RMK A01 T02520029  RH  023%=      5-min Rain = 0
KHE1 192227Z 18010KT 25/03 A2982 RMK A01 T02520029  RH  023%=      5-min Rain = 0
KHE1 192228Z 18011KT 25/03 A2982 RMK A01 T02510030  RH  024%=      5-min Rain = 0
KHE1 192229Z 18014KT 25/03 A2982 RMK A01 T02510028  RH  023%=      5-min Rain = 0
KHE1 192230Z 18014KT 25/03 A2982 RMK A01 T02510027  RH  023%=      5-min Rain = 0
KHE1 192231Z 18014KT 25/03 A2982 RMK A01 T02520026  RH  023%=      5-min Rain = 0
KHE1 192232Z 18012KT 25/03 A2982 RMK A01 T02520028  RH  023%=      5-min Rain = 0
KHE1 192233Z 18012KT 25/03 A2982 RMK A01 T02510028  RH  023%=      5-min Rain = 0
KHE1 192234Z 18012KT 25/03 A2982 RMK A01 T02500029  RH  024%=      5-min Rain = 0
KHE1 192235Z 18012KT 25/03 A2982 RMK A01 T02490027  RH  023%=      5-min Rain = 0
KHE1 192236Z 18013KT 25/03 A2982 RMK A01 T02500026  RH  023%=      5-min Rain = 0
KHE1 192237Z 18012KT 25/03 A2982 RMK A01 T02500027  RH  023%=      5-min Rain = 0
KHE1 192238Z 18012KT 25/03 A2982 RMK A01 T02490026  RH  023%=      5-min Rain = 0
KHE1 192239Z 18012KT 25/03 A2982 RMK A01 T02490025  RH  023%=      5-min Rain = 0
KHE1 192240Z 18011KT 25/03 A2982 RMK A01 T02490026  RH  023%=      5-min Rain = 0
KHE1 192241Z 18010KT 25/03 A2982 RMK A01 T02490025  RH  023%=      5-min Rain = 0
KHE1 192242Z 18012KT 25/03 A2982 RMK A01 T02480026  RH  023%=      5-min Rain = 0
KHE1 192243Z 18011KT 25/03 A2982 RMK A01 T02480025  RH  023%=      5-min Rain = 0
KHE1 192244Z 18012KT 25/03 A2982 RMK A01 T02470025  RH  023%=      5-min Rain = 0
KHE1 192245Z 18012KT 25/02 A2981 RMK A01 T02470023  RH  023%=      5-min Rain = 0
KHE1 192246Z 18012KT 25/02 A2981 RMK A01 T02470023  RH  023%=      5-min Rain = 0
KHE1 192247Z 18011KT 25/02 A2981 RMK A01 T02470024  RH  023%=      5-min Rain = 0
KHE1 192248Z 17010KT 25/03 A2981 RMK A01 T02460026  RH  024%=      5-min Rain = 0
KHE1 192249Z 18010KT 24/03 A2981 RMK A01 T02440027  RH  024%=      5-min Rain = 0
KHE1 192250Z 18009KT 24/03 A2981 RMK A01 T02430028  RH  025%=      5-min Rain = 0
KHE1 192251Z 18009KT 24/03 A2981 RMK A01 T02420028  RH  025%=      5-min Rain = 0
KHE1 192252Z 18009KT 24/03 A2981 RMK A01 T02410028  RH  025%=      5-min Rain = 0
KHE1 192253Z 17009KT 24/03 A2981 RMK A01 T02400028  RH  025%=      5-min Rain = 0
KHE1 192254Z 17009KT 24/03 A2981 RMK A01 T02400028  RH  025%=      5-min Rain = 0
KHE1 192255Z 17009KT 24/03 A2981 RMK A01 T02400027  RH  025%=      5-min Rain = 0
KHE1 192256Z 18009KT 24/03 A2981 RMK A01 T02390028  RH  025%=      5-min Rain = 0
KHE1 192257Z 17009KT 24/03 A2981 RMK A01 T02380029  RH  025%=      5-min Rain = 0
KHE1 192258Z 17009KT 24/03 A2981 RMK A01 T02360029  RH  026%=      5-min Rain = 0
KHE1 192259Z 17009KT 23/03 A2981 RMK A01 T02340029  RH  026%=      5-min Rain = 0
KHE1 192300Z 17009KT 23/03 A2981 RMK A01 T02320030  RH  027%=      5-min Rain = 0
KHE1 192301Z 17009KT 23/03 A2981 RMK A01 T02300030  RH  027%=      5-min Rain = 0
KHE1 192302Z 17009KT 23/03 A2981 RMK A01 T02280031  RH  027%=      5-min Rain = 0
KHE1 192303Z 17009KT 23/03 A2981 RMK A01 T02260031  RH  028%=      5-min Rain = 0
KHE1 192304Z 17009KT 23/03 A2981 RMK A01 T02250031  RH  028%=      5-min Rain = 0
KHE1 192305Z 17009KT 22/03 A2982 RMK A01 T02240031  RH  028%=      5-min Rain = 0
KHE1 192306Z 17009KT 22/03 A2982 RMK A01 T02240031  RH  028%=      5-min Rain = 0
KHE1 192307Z 17008KT 22/03 A2982 RMK A01 T02230031  RH  028%=      5-min Rain = 0
KHE1 192308Z 17008KT 22/03 A2982 RMK A01 T02230031  RH  028%=      5-min Rain = 0
KHE1 192309Z 17008KT 22/03 A2982 RMK A01 T02220031  RH  029%=      5-min Rain = 0
KHE1 192310Z 17008KT 22/03 A2982 RMK A01 T02200031  RH  029%=      5-min Rain = 0
KHE1 192311Z 18008KT 22/03 A2982 RMK A01 T02200031  RH  029%=      5-min Rain = 0
KHE1 192312Z 18009KT 22/03 A2982 RMK A01 T02190031  RH  029%=      5-min Rain = 0
KHE1 192313Z 18008KT 22/03 A2982 RMK A01 T02180031  RH  029%=      5-min Rain = 0
KHE1 192314Z 18009KT 22/03 A2982 RMK A01 T02170032  RH  029%=      5-min Rain = 0
KHE1 192315Z 18009KT 22/03 A2982 RMK A01 T02160032  RH  030%=      5-min Rain = 0
KHE1 192316Z 18009KT 21/03 A2982 RMK A01 T02140032  RH  030%=      5-min Rain = 0
KHE1 192317Z 18008KT 21/03 A2982 RMK A01 T02130033  RH  031%=      5-min Rain = 0
KHE1 192318Z 18008KT 21/03 A2982 RMK A01 T02120033  RH  031%=      5-min Rain = 0
KHE1 192319Z 17008KT 21/03 A2982 RMK A01 T02100033  RH  031%=      5-min Rain = 0
KHE1 192320Z 17008KT 21/03 A2982 RMK A01 T02080033  RH  031%=      5-min Rain = 0
KHE1 192321Z 17009KT 21/03 A2982 RMK A01 T02070032  RH  031%=      5-min Rain = 0
KHE1 192322Z 17009KT 21/03 A2982 RMK A01 T02060032  RH  032%=      5-min Rain = 0
KHE1 192323Z 17009KT 21/03 A2982 RMK A01 T02050032  RH  032%=      5-min Rain = 0
KHE1 192324Z 17009KT 20/03 A2982 RMK A01 T02030032  RH  032%=      5-min Rain = 0
KHE1 192325Z 17009KT 20/03 A2982 RMK A01 T02010032  RH  033%=      5-min Rain = 0
KHE1 192326Z 16009KT 20/03 A2982 RMK A01 T01990032  RH  033%=      5-min Rain = 0
KHE1 192327Z 16009KT 20/03 A2982 RMK A01 T01990031  RH  033%=      5-min Rain = 0
KHE1 192328Z 16009KT 20/03 A2982 RMK A01 T01980031  RH  033%=      5-min Rain = 0
KHE1 192329Z 16009KT 20/03 A2982 RMK A01 T01980032  RH  033%=      5-min Rain = 0
KHE1 192330Z 16010KT 20/03 A2982 RMK A01 T01980032  RH  033%=      5-min Rain = 0
KHE1 192331Z 16010KT 20/03 A2982 RMK A01 T01980032  RH  033%=      5-min Rain = 0
KHE1 192332Z 16009KT 20/03 A2982 RMK A01 T01980033  RH  034%=      5-min Rain = 0
KHE1 192333Z 16009KT 20/03 A2982 RMK A01 T01970033  RH  034%=      5-min Rain = 0
KHE1 192334Z 16009KT 20/03 A2982 RMK A01 T01960033  RH  034%=      5-min Rain = 0
KHE1 192335Z 15009KT 20/03 A2982 RMK A01 T01950034  RH  034%=      5-min Rain = 0
KHE1 192336Z 15010KT 19/03 A2982 RMK A01 T01940033  RH  034%=      5-min Rain = 0
KHE1 192337Z 15010KT 19/03 A2982 RMK A01 T01940034  RH  035%=      5-min Rain = 0
KHE1 192338Z 15010KT 19/03 A2982 RMK A01 T01940034  RH  034%=      5-min Rain = 0
KHE1 192339Z 15010KT 20/03 A2982 RMK A01 T01960034  RH  034%=      5-min Rain = 0
KHE1 192340Z 15010KT 20/03 A2982 RMK A01 T01980034  RH  034%=      5-min Rain = 0
KHE1 192341Z 15010KT 20/03 A2982 RMK A01 T02000034  RH  033%=      5-min Rain = 0
KHE1 192342Z 15010KT 20/04 A2982 RMK A01 T02010035  RH  033%=      5-min Rain = 0
KHE1 192343Z 15010KT 20/03 A2982 RMK A01 T02010034  RH  033%=      5-min Rain = 0
KHE1 192344Z 15010KT 20/03 A2982 RMK A01 T02010034  RH  033%=      5-min Rain = 0
KHE1 192345Z 15009KT 20/04 A2982 RMK A01 T02010035  RH  033%=      5-min Rain = 0
KHE1 192346Z 14009KT 20/04 A2982 RMK A01 T02000035  RH  034%=      5-min Rain = 0
KHE1 192347Z 14009KT 20/04 A2982 RMK A01 T01980035  RH  034%=      5-min Rain = 0
KHE1 192348Z 14010KT 20/04 A2982 RMK A01 T01960035  RH  034%=      5-min Rain = 0
KHE1 192349Z 14010KT 20/04 A2982 RMK A01 T01950036  RH  035%=      5-min Rain = 0
KHE1 192350Z 14010KT 20/04 A2982 RMK A01 T01950037  RH  035%=      5-min Rain = 0
KHE1 192351Z 15010KT 20/04 A2982 RMK A01 T01950037  RH  035%=      5-min Rain = 0
KHE1 192352Z 15011KT 20/04 A2982 RMK A01 T01950037  RH  035%=      5-min Rain = 0
KHE1 192353Z 15011KT 19/04 A2982 RMK A01 T01940037  RH  035%=      5-min Rain = 0
KHE1 192354Z 15011KT 19/04 A2982 RMK A01 T01940037  RH  035%=      5-min Rain = 0
KHE1 192355Z 15010KT 19/04 A2982 RMK A01 T01940037  RH  035%=      5-min Rain = 0
KHE1 192356Z 15010KT 19/04 A2982 RMK A01 T01930037  RH  036%=      5-min Rain = 0
KHE1 192357Z 15011KT 19/04 A2982 RMK A01 T01930037  RH  036%=      5-min Rain = 0
KHE1 192358Z 15011KT 19/04 A2982 RMK A01 T01910037  RH  036%=      5-min Rain = 0
KHE1 192359Z 15010KT 19/04 A2982 RMK A01 T01900038  RH  036%=      5-min Rain = 0
KHE1 200000Z 15010KT 19/04 A2982 RMK A01 T01890038  RH  037%=      5-min Rain = 0
KHE1 200001Z 15010KT 19/04 A2982 RMK A01 T01880037  RH  037%=      5-min Rain = 0
KHE1 200002Z 15010KT 19/04 A2982 RMK A01 T01880037  RH  037%=      5-min Rain = 0
KHE1 200003Z 15010KT 19/04 A2982 RMK A01 T01880037  RH  037%=      5-min Rain = 0
KHE1 200004Z 15011KT 19/04 A2982 RMK A01 T01880037  RH  037%=      5-min Rain = 0
KHE1 200005Z 15011KT 19/04 A2982 RMK A01 T01880036  RH  037%=      5-min Rain = 0
KHE1 200006Z 15010KT 19/04 A2982 RMK A01 T01880036  RH  036%=      5-min Rain = 0
KHE1 200007Z 15010KT 19/04 A2982 RMK A01 T01880036  RH  036%=      5-min Rain = 0
KHE1 200008Z 15010KT 19/04 A2982 RMK A01 T01880037  RH  037%=      5-min Rain = 0
KHE1 200009Z 15010KT 19/04 A2982 RMK A01 T01870037  RH  037%=      5-min Rain = 0
KHE1 200010Z 15010KT 19/04 A2982 RMK A01 T01850037  RH  037%=      5-min Rain = 0
KHE1 200011Z 15010KT 18/04 A2982 RMK A01 T01840037  RH  038%=      5-min Rain = 0
KHE1 200012Z 15010KT 18/04 A2982 RMK A01 T01830037  RH  038%=      5-min Rain = 0
KHE1 200013Z 15010KT 18/04 A2982 RMK A01 T01820036  RH  038%=      5-min Rain = 0
KHE1 200014Z 15010KT 18/04 A2982 RMK A01 T01820036  RH  038%=      5-min Rain = 0
KHE1 200015Z 14010KT 18/04 A2982 RMK A01 T01820037  RH  038%=      5-min Rain = 0
KHE1 200016Z 14010KT 18/04 A2982 RMK A01 T01810037  RH  038%=      5-min Rain = 0
KHE1 200017Z 13009KT 18/04 A2982 RMK A01 T01810036  RH  038%=      5-min Rain = 0
KHE1 200018Z 13009KT 18/04 A2982 RMK A01 T01810036  RH  038%=      5-min Rain = 0
KHE1 200019Z 13009KT 18/04 A2982 RMK A01 T01810036  RH  038%=      5-min Rain = 0
KHE1 200020Z 13009KT 18/04 A2982 RMK A01 T01800037  RH  039%=      5-min Rain = 0
KHE1 200021Z 13009KT 18/04 A2982 RMK A01 T01770037  RH  039%=      5-min Rain = 0
KHE1 200022Z 14009KT 18/04 A2982 RMK A01 T01760036  RH  039%=      5-min Rain = 0
KHE1 200023Z 14009KT 18/04 A2982 RMK A01 T01760036  RH  039%=      5-min Rain = 0
KHE1 200024Z 14009KT 18/04 A2982 RMK A01 T01750036  RH  039%=      5-min Rain = 0
KHE1 200025Z 14010KT 18/04 A2982 RMK A01 T01760035  RH  039%=      5-min Rain = 0
KHE1 200026Z 14011KT 18/04 A2982 RMK A01 T01770035  RH  039%=      5-min Rain = 0
KHE1 200027Z 14010KT 18/04 A2982 RMK A01 T01790035  RH  038%=      5-min Rain = 0
KHE1 200028Z 14011KT 18/04 A2982 RMK A01 T01810035  RH  038%=      5-min Rain = 0
KHE1 200029Z 14010KT 18/04 A2982 RMK A01 T01810035  RH  038%=      5-min Rain = 0
KHE1 200030Z 14011KT 18/04 A2982 RMK A01 T01800035  RH  038%=      5-min Rain = 0
KHE1 200031Z 15011KT 18/03 A2982 RMK A01 T01800034  RH  038%=      5-min Rain = 0
KHE1 200032Z 14011KT 18/03 A2982 RMK A01 T01790034  RH  038%=      5-min Rain = 0
KHE1 200033Z 14011KT 18/03 A2982 RMK A01 T01780034  RH  038%=      5-min Rain = 0
KHE1 200034Z 15011KT 18/03 A2982 RMK A01 T01770034  RH  038%=      5-min Rain = 0
KHE1 200035Z 14011KT 18/03 A2982 RMK A01 T01760034  RH  039%=      5-min Rain = 0
KHE1 200036Z 14012KT 18/03 A2982 RMK A01 T01760034  RH  039%=      5-min Rain = 0
KHE1 200037Z 14011KT 18/03 A2982 RMK A01 T01750034  RH  039%=      5-min Rain = 0
KHE1 200038Z 14011KT 18/03 A2982 RMK A01 T01750034  RH  039%=      5-min Rain = 0
KHE1 200039Z 14011KT 18/03 A2982 RMK A01 T01750034  RH  039%=      5-min Rain = 0
KHE1 200040Z 14011KT 17/03 A2982 RMK A01 T01740034  RH  039%=      5-min Rain = 0
KHE1 200041Z 14011KT 17/03 A2982 RMK A01 T01740034  RH  039%=      5-min Rain = 0
KHE1 200042Z 14011KT 17/03 A2982 RMK A01 T01730034  RH  039%=      5-min Rain = 0
KHE1 200043Z 14011KT 17/03 A2982 RMK A01 T01730034  RH  040%=      5-min Rain = 0
KHE1 200044Z 14011KT 17/03 A2982 RMK A01 T01720034  RH  040%=      5-min Rain = 0
KHE1 200045Z 14011KT 17/03 A2982 RMK A01 T01710034  RH  040%=      5-min Rain = 0
KHE1 200046Z 14011KT 17/03 A2982 RMK A01 T01710034  RH  040%=      5-min Rain = 0
KHE1 200047Z 14011KT 17/03 A2982 RMK A01 T01710034  RH  040%=      5-min Rain = 0
KHE1 200048Z 15011KT 17/03 A2982 RMK A01 T01700034  RH  040%=      5-min Rain = 0
KHE1 200049Z 15011KT 17/03 A2982 RMK A01 T01700034  RH  040%=      5-min Rain = 0
KHE1 200050Z 15011KT 17/04 A2982 RMK A01 T01690035  RH  041%=      5-min Rain = 0
KHE1 200051Z 15011KT 17/03 A2982 RMK A01 T01680034  RH  041%=      5-min Rain = 0
KHE1 200052Z 15011KT 17/04 A2982 RMK A01 T01670035  RH  041%=      5-min Rain = 0
KHE1 200053Z 15011KT 17/03 A2982 RMK A01 T01660034  RH  041%=      5-min Rain = 0
KHE1 200054Z 15011KT 17/03 A2983 RMK A01 T01660034  RH  041%=      5-min Rain = 0
KHE1 200055Z 15011KT 17/04 A2983 RMK A01 T01660035  RH  042%=      5-min Rain = 0
KHE1 200056Z 15011KT 17/04 A2983 RMK A01 T01650035  RH  042%=      5-min Rain = 0
KHE1 200057Z 15011KT 17/03 A2983 RMK A01 T01650034  RH  042%=      5-min Rain = 0
KHE1 200058Z 14012KT 17/03 A2983 RMK A01 T01650034  RH  042%=      5-min Rain = 0
KHE1 200059Z 15011KT 17/03 A2983 RMK A01 T01650034  RH  041%=      5-min Rain = 0
KHE1 200100Z 15012KT 17/03 A2983 RMK A01 T01650033  RH  041%=      5-min Rain = 0
KHE1 200101Z 15011KT 17/03 A2983 RMK A01 T01650033  RH  041%=      5-min Rain = 0
KHE1 200102Z 14011KT 17/03 A2982 RMK A01 T01650034  RH  041%=      5-min Rain = 0
KHE1 200103Z 14012KT 17/03 A2982 RMK A01 T01650034  RH  042%=      5-min Rain = 0
KHE1 200104Z 15011KT 16/03 A2982 RMK A01 T01640034  RH  042%=      5-min Rain = 0
KHE1 200105Z 15012KT 16/03 A2982 RMK A01 T01640034  RH  042%=      5-min Rain = 0
KHE1 200106Z 15012KT 17/03 A2982 RMK A01 T01650034  RH  042%=      5-min Rain = 0
KHE1 200107Z 15012KT 17/03 A2982 RMK A01 T01650033  RH  041%=      5-min Rain = 0
KHE1 200108Z 15012KT 17/03 A2982 RMK A01 T01650034  RH  042%=      5-min Rain = 0
KHE1 200109Z 15012KT 17/03 A2982 RMK A01 T01650034  RH  042%=      5-min Rain = 0
KHE1 200110Z 15012KT 16/04 A2982 RMK A01 T01640035  RH  042%=      5-min Rain = 0
KHE1 200111Z 15012KT 16/04 A2982 RMK A01 T01630035  RH  042%=      5-min Rain = 0
KHE1 200112Z 14012KT 16/04 A2982 RMK A01 T01630035  RH  042%=      5-min Rain = 0
KHE1 200113Z 14012KT 16/04 A2982 RMK A01 T01630035  RH  042%=      5-min Rain = 0
KHE1 200114Z 14011KT 16/04 A2982 RMK A01 T01630035  RH  042%=      5-min Rain = 0
KHE1 200115Z 14012KT 16/03 A2982 RMK A01 T01630034  RH  042%=      5-min Rain = 0
KHE1 200116Z 14012KT 16/03 A2982 RMK A01 T01630034  RH  042%=      5-min Rain = 0
KHE1 200117Z 14012KT 16/04 A2982 RMK A01 T01640035  RH  042%=      5-min Rain = 0
KHE1 200118Z 14011KT 16/04 A2982 RMK A01 T01640035  RH  042%=      5-min Rain = 0
KHE1 200119Z 14011KT 17/04 A2982 RMK A01 T01650035  RH  042%=      5-min Rain = 0
KHE1 200120Z 14012KT 17/04 A2982 RMK A01 T01660035  RH  042%=      5-min Rain = 0
KHE1 200121Z 14012KT 17/04 A2982 RMK A01 T01670035  RH  041%=      5-min Rain = 0
KHE1 200122Z 14011KT 17/04 A2982 RMK A01 T01670035  RH  041%=      5-min Rain = 0
KHE1 200123Z 14012KT 17/04 A2982 RMK A01 T01670035  RH  041%=      5-min Rain = 0
KHE1 200124Z 14011KT 17/04 A2982 RMK A01 T01670036  RH  041%=      5-min Rain = 0
KHE1 200125Z 14011KT 17/04 A2982 RMK A01 T01670036  RH  042%=      5-min Rain = 0
KHE1 200126Z 14012KT 17/04 A2982 RMK A01 T01670036  RH  042%=      5-min Rain = 0
KHE1 200127Z 14012KT 17/04 A2982 RMK A01 T01670036  RH  042%=      5-min Rain = 0
KHE1 200128Z 14011KT 17/04 A2982 RMK A01 T01670037  RH  042%=      5-min Rain = 0
KHE1 200129Z 14011KT 17/04 A2982 RMK A01 T01660037  RH  042%=      5-min Rain = 0
KHE1 200130Z 14011KT 17/04 A2982 RMK A01 T01650037  RH  042%=      5-min Rain = 0
KHE1 200131Z 14012KT 17/04 A2982 RMK A01 T01650038  RH  043%=      5-min Rain = 0
KHE1 200132Z 14012KT 17/04 A2982 RMK A01 T01650038  RH  043%=      5-min Rain = 0
KHE1 200133Z 14012KT 16/04 A2982 RMK A01 T01640038  RH  043%=      5-min Rain = 0
KHE1 200134Z 14012KT 16/04 A2982 RMK A01 T01640038  RH  043%=      5-min Rain = 0
KHE1 200135Z 14011KT 16/04 A2982 RMK A01 T01630038  RH  043%=      5-min Rain = 0
KHE1 200136Z 14011KT 16/04 A2982 RMK A01 T01630038  RH  043%=      5-min Rain = 0
KHE1 200137Z 14012KT 16/04 A2982 RMK A01 T01620039  RH  044%=      5-min Rain = 0
KHE1 200138Z 14011KT 16/04 A2982 RMK A01 T01610039  RH  044%=      5-min Rain = 0
KHE1 200139Z 14012KT 16/04 A2982 RMK A01 T01600039  RH  044%=      5-min Rain = 0
KHE1 200140Z 14011KT 16/04 A2982 RMK A01 T01600040  RH  045%=      5-min Rain = 0
KHE1 200141Z 14011KT 16/04 A2982 RMK A01 T01600040  RH  045%=      5-min Rain = 0
KHE1 200142Z 14011KT 16/04 A2982 RMK A01 T01590040  RH  045%=      5-min Rain = 0
KHE1 200143Z 14011KT 16/04 A2982 RMK A01 T01590040  RH  045%=      5-min Rain = 0
KHE1 200144Z 14011KT 16/04 A2982 RMK A01 T01580040  RH  045%=      5-min Rain = 0
KHE1 200145Z 14011KT 16/04 A2982 RMK A01 T01570041  RH  046%=      5-min Rain = 0
KHE1 200146Z 14011KT 16/04 A2982 RMK A01 T01570041  RH  046%=      5-min Rain = 0
KHE1 200147Z 14011KT 16/04 A2982 RMK A01 T01570041  RH  046%=      5-min Rain = 0
KHE1 200148Z 14011KT 16/04 A2982 RMK A01 T01560041  RH  046%=      5-min Rain = 0
KHE1 200149Z 14011KT 16/04 A2982 RMK A01 T01560041  RH  046%=      5-min Rain = 0
KHE1 200150Z 14011KT 16/04 A2982 RMK A01 T01560042  RH  047%=      5-min Rain = 0
KHE1 200151Z 14011KT 16/04 A2983 RMK A01 T01560042  RH  047%=      5-min Rain = 0
KHE1 200152Z 14011KT 16/04 A2983 RMK A01 T01560042  RH  047%=      5-min Rain = 0
KHE1 200153Z 14011KT 16/04 A2983 RMK A01 T01560042  RH  047%=      5-min Rain = 0
KHE1 200154Z 14011KT 16/04 A2983 RMK A01 T01560042  RH  047%=      5-min Rain = 0
KHE1 200155Z 14011KT 16/04 A2983 RMK A01 T01570043  RH  046%=      5-min Rain = 0
KHE1 200156Z 14011KT 16/04 A2983 RMK A01 T01570043  RH  046%=      5-min Rain = 0
KHE1 200157Z 14011KT 16/04 A2982 RMK A01 T01580043  RH  046%=      5-min Rain = 0
KHE1 200158Z 14011KT 16/04 A2982 RMK A01 T01580043  RH  046%=      5-min Rain = 0
KHE1 200159Z 14012KT 16/04 A2982 RMK A01 T01590043  RH  046%=      5-min Rain = 0
KHE1 200200Z 14011KT 16/04 A2982 RMK A01 T01590044  RH  046%=      5-min Rain = 0
KHE1 200201Z 14012KT 16/04 A2982 RMK A01 T01590044  RH  046%=      5-min Rain = 0
KHE1 200202Z 14012KT 16/04 A2982 RMK A01 T01600044  RH  046%=      5-min Rain = 0
KHE1 200203Z 14012KT 16/04 A2982 RMK A01 T01610044  RH  046%=      5-min Rain = 0
KHE1 200204Z 13011KT 16/04 A2982 RMK A01 T01610044  RH  046%=      5-min Rain = 0
KHE1 200205Z 14012KT 16/04 A2982 RMK A01 T01620044  RH  046%=      5-min Rain = 0
KHE1 200206Z 14012KT 16/04 A2982 RMK A01 T01620044  RH  045%=      5-min Rain = 0
KHE1 200207Z 14011KT 16/04 A2982 RMK A01 T01630044  RH  045%=      5-min Rain = 0
KHE1 200208Z 13012KT 16/05 A2982 RMK A01 T01630045  RH  045%=      5-min Rain = 0
KHE1 200209Z 13012KT 16/05 A2982 RMK A01 T01640045  RH  045%=      5-min Rain = 0
KHE1 200210Z 13012KT 16/05 A2982 RMK A01 T01640045  RH  045%=      5-min Rain = 0
KHE1 200211Z 14012KT 16/05 A2982 RMK A01 T01640046  RH  045%=      5-min Rain = 0
KHE1 200212Z 14013KT 17/05 A2982 RMK A01 T01650046  RH  045%=      5-min Rain = 0
KHE1 200213Z 14012KT 17/05 A2982 RMK A01 T01660046  RH  045%=      5-min Rain = 0
KHE1 200214Z 14013KT 17/05 A2982 RMK A01 T01660047  RH  045%=      5-min Rain = 0
KHE1 200215Z 14013KT 17/05 A2982 RMK A01 T01670047  RH  045%=      5-min Rain = 0
KHE1 200216Z 14013KT 17/05 A2982 RMK A01 T01670047  RH  045%=      5-min Rain = 0
KHE1 200217Z 14012KT 17/05 A2982 RMK A01 T01680048  RH  045%=      5-min Rain = 0
KHE1 200218Z 14012KT 17/05 A2982 RMK A01 T01670048  RH  045%=      5-min Rain = 0
KHE1 200219Z 14013KT 17/05 A2982 RMK A01 T01670048  RH  045%=      5-min Rain = 0
KHE1 200220Z 14012KT 17/05 A2982 RMK A01 T01680048  RH  045%=      5-min Rain = 0
KHE1 200221Z 14013KT 17/05 A2982 RMK A01 T01680049  RH  045%=      5-min Rain = 0
KHE1 200222Z 14012KT 17/05 A2982 RMK A01 T01670049  RH  045%=      5-min Rain = 0
KHE1 200223Z 14012KT 17/05 A2982 RMK A01 T01670049  RH  045%=      5-min Rain = 0
KHE1 200224Z 14012KT 17/05 A2982 RMK A01 T01670049  RH  046%=      5-min Rain = 0
KHE1 200225Z 14012KT 17/05 A2982 RMK A01 T01660049  RH  046%=      5-min Rain = 0
KHE1 200226Z 14012KT 17/05 A2982 RMK A01 T01660049  RH  046%=      5-min Rain = 0
KHE1 200227Z 14012KT 17/05 A2982 RMK A01 T01660050  RH  046%=      5-min Rain = 0
KHE1 200228Z 14013KT 17/05 A2982 RMK A01 T01660051  RH  046%=      5-min Rain = 0
KHE1 200229Z 14013KT 17/05 A2982 RMK A01 T01660050  RH  046%=      5-min Rain = 0
KHE1 200230Z 14013KT 17/05 A2982 RMK A01 T01660051  RH  046%=      5-min Rain = 0
KHE1 200231Z 14013KT 17/05 A2982 RMK A01 T01660051  RH  046%=      5-min Rain = 0
KHE1 200232Z 14013KT 17/05 A2982 RMK A01 T01650051  RH  047%=      5-min Rain = 0
KHE1 200233Z 14013KT 17/05 A2982 RMK A01 T01660051  RH  047%=      5-min Rain = 0
KHE1 200234Z 14012KT 17/05 A2982 RMK A01 T01660051  RH  046%=      5-min Rain = 0
KHE1 200235Z 14013KT 17/05 A2982 RMK A01 T01660051  RH  047%=      5-min Rain = 0
KHE1 200236Z 14012KT 17/05 A2982 RMK A01 T01660051  RH  047%=      5-min Rain = 0
KHE1 200237Z 14013KT 17/05 A2982 RMK A01 T01670052  RH  047%=      5-min Rain = 0
KHE1 200238Z 14013KT 17/05 A2982 RMK A01 T01670052  RH  046%=      5-min Rain = 0
KHE1 200239Z 14012KT 17/05 A2982 RMK A01 T01670052  RH  046%=      5-min Rain = 0
KHE1 200240Z 14013KT 17/05 A2982 RMK A01 T01670052  RH  046%=      5-min Rain = 0
KHE1 200241Z 14014KT 17/05 A2982 RMK A01 T01670052  RH  046%=      5-min Rain = 0
KHE1 200242Z 14013KT 17/05 A2982 RMK A01 T01680052  RH  046%=      5-min Rain = 0
KHE1 200243Z 14013KT 17/05 A2982 RMK A01 T01690052  RH  046%=      5-min Rain = 0
KHE1 200244Z 14014KT 17/05 A2982 RMK A01 T01690052  RH  046%=      5-min Rain = 0
KHE1 200245Z 14013KT 17/05 A2982 RMK A01 T01700052  RH  046%=      5-min Rain = 0
KHE1 200246Z 14013KT 17/05 A2982 RMK A01 T01700052  RH  046%=      5-min Rain = 0
KHE1 200247Z 14014KT 17/05 A2982 RMK A01 T01690053  RH  046%=      5-min Rain = 0
KHE1 200248Z 14014KT 17/05 A2982 RMK A01 T01690052  RH  046%=      5-min Rain = 0
KHE1 200249Z 14013KT 17/05 A2982 RMK A01 T01700053  RH  046%=      5-min Rain = 0
KHE1 200250Z 14014KT 17/05 A2982 RMK A01 T01680053  RH  046%=      5-min Rain = 0
KHE1 200251Z 14013KT 17/05 A2982 RMK A01 T01680053  RH  046%=      5-min Rain = 0
KHE1 200252Z 14013KT 17/05 A2982 RMK A01 T01680053  RH  046%=      5-min Rain = 0
KHE1 200253Z 14013KT 17/05 A2982 RMK A01 T01680053  RH  047%=      5-min Rain = 0
KHE1 200254Z 14014KT 17/05 A2982 RMK A01 T01680053  RH  047%=      5-min Rain = 0
KHE1 200255Z 14013KT 17/05 A2982 RMK A01 T01680053  RH  047%=      5-min Rain = 0
KHE1 200256Z 14013KT 17/05 A2982 RMK A01 T01680053  RH  047%=      5-min Rain = 0
KHE1 200257Z 14014KT 17/05 A2982 RMK A01 T01690053  RH  046%=      5-min Rain = 0
KHE1 200258Z 14013KT 17/05 A2982 RMK A01 T01690053  RH  046%=      5-min Rain = 0
KHE1 200259Z 14013KT 17/05 A2982 RMK A01 T01680054  RH  047%=      5-min Rain = 0
KHE1 200300Z 14014KT 17/05 A2982 RMK A01 T01680054  RH  047%=      5-min Rain = 0
KHE1 200301Z 14013KT 17/05 A2982 RMK A01 T01680054  RH  047%=      5-min Rain = 0
KHE1 200302Z 14014KT 17/05 A2982 RMK A01 T01680054  RH  047%=      5-min Rain = 0
KHE1 200303Z 14014KT 17/05 A2982 RMK A01 T01690054  RH  047%=      5-min Rain = 0
KHE1 200304Z 14014KT 17/05 A2982 RMK A01 T01690054  RH  047%=      5-min Rain = 0
KHE1 200305Z 14014KT 17/05 A2982 RMK A01 T01680054  RH  047%=      5-min Rain = 0
KHE1 200306Z 15014KT 17/05 A2982 RMK A01 T01690054  RH  047%=      5-min Rain = 0
KHE1 200307Z 15014KT 17/05 A2982 RMK A01 T01680054  RH  047%=      5-min Rain = 0
KHE1 200308Z 14014KT 17/05 A2982 RMK A01 T01680054  RH  047%=      5-min Rain = 0
KHE1 200309Z 15013KT 17/05 A2982 RMK A01 T01680054  RH  047%=      5-min Rain = 0
KHE1 200310Z 15014KT 17/05 A2982 RMK A01 T01670054  RH  047%=      5-min Rain = 0
KHE1 200311Z 15013KT 17/05 A2982 RMK A01 T01670054  RH  047%=      5-min Rain = 0
KHE1 200312Z 15014KT 17/05 A2982 RMK A01 T01660054  RH  048%=      5-min Rain = 0
KHE1 200313Z 15014KT 17/05 A2982 RMK A01 T01660054  RH  048%=      5-min Rain = 0
KHE1 200314Z 15014KT 17/05 A2982 RMK A01 T01660054  RH  048%=      5-min Rain = 0
KHE1 200315Z 15014KT 17/05 A2982 RMK A01 T01660054  RH  048%=      5-min Rain = 0
KHE1 200316Z 15014KT 17/05 A2982 RMK A01 T01660054  RH  047%=      5-min Rain = 0
KHE1 200317Z 15014KT 17/05 A2982 RMK A01 T01660054  RH  047%=      5-min Rain = 0
KHE1 200318Z 15013KT 17/05 A2982 RMK A01 T01670054  RH  047%=      5-min Rain = 0
KHE1 200319Z 15014KT 17/05 A2982 RMK A01 T01670054  RH  047%=      5-min Rain = 0
KHE1 200320Z 15013KT 17/06 A2982 RMK A01 T01670055  RH  047%=      5-min Rain = 0
KHE1 200321Z 15014KT 17/05 A2982 RMK A01 T01670054  RH  047%=      5-min Rain = 0
KHE1 200322Z 15014KT 17/06 A2983 RMK A01 T01670055  RH  048%=      5-min Rain = 0
KHE1 200323Z 15015KT 17/06 A2983 RMK A01 T01670055  RH  048%=      5-min Rain = 0
KHE1 200324Z 15013KT 17/06 A2983 RMK A01 T01670055  RH  048%=      5-min Rain = 0
KHE1 200325Z 15014KT 17/06 A2983 RMK A01 T01670055  RH  047%=      5-min Rain = 0
KHE1 200326Z 15014KT 17/06 A2983 RMK A01 T01670055  RH  047%=      5-min Rain = 0
KHE1 200327Z 15013KT 17/06 A2983 RMK A01 T01680055  RH  047%=      5-min Rain = 0
KHE1 200328Z 15013KT 17/06 A2983 RMK A01 T01670055  RH  047%=      5-min Rain = 0
KHE1 200329Z 15013KT 17/06 A2983 RMK A01 T01670055  RH  048%=      5-min Rain = 0
KHE1 200330Z 15013KT 17/06 A2983 RMK A01 T01670055  RH  048%=      5-min Rain = 0
KHE1 200331Z 15013KT 17/06 A2983 RMK A01 T01660055  RH  048%=      5-min Rain = 0
KHE1 200332Z 15012KT 17/06 A2983 RMK A01 T01660056  RH  048%=      5-min Rain = 0
KHE1 200333Z 15012KT 16/06 A2983 RMK A01 T01640056  RH  049%=      5-min Rain = 0
KHE1 200334Z 15012KT 16/06 A2983 RMK A01 T01630056  RH  049%=      5-min Rain = 0
KHE1 200335Z 15012KT 16/06 A2983 RMK A01 T01630056  RH  049%=      5-min Rain = 0
KHE1 200336Z 15012KT 16/06 A2983 RMK A01 T01620056  RH  049%=      5-min Rain = 0
KHE1 200337Z 15012KT 16/06 A2983 RMK A01 T01630057  RH  049%=      5-min Rain = 0
KHE1 200338Z 15011KT 16/06 A2983 RMK A01 T01620056  RH  050%=      5-min Rain = 0
KHE1 200339Z 15012KT 16/06 A2983 RMK A01 T01620057  RH  050%=      5-min Rain = 0
KHE1 200340Z 14012KT 16/06 A2983 RMK A01 T01610057  RH  050%=      5-min Rain = 0
KHE1 200341Z 14013KT 16/06 A2983 RMK A01 T01610057  RH  050%=      5-min Rain = 0
KHE1 200342Z 14013KT 16/06 A2983 RMK A01 T01610057  RH  050%=      5-min Rain = 0
KHE1 200343Z 14013KT 16/06 A2983 RMK A01 T01610057  RH  050%=      5-min Rain = 0
KHE1 200344Z 15012KT 16/06 A2983 RMK A01 T01610057  RH  050%=      5-min Rain = 0
KHE1 200345Z 15013KT 16/06 A2983 RMK A01 T01600057  RH  050%=      5-min Rain = 0
KHE1 200346Z 15013KT 16/06 A2983 RMK A01 T01610057  RH  050%=      5-min Rain = 0
KHE1 200347Z 15012KT 16/06 A2983 RMK A01 T01610057  RH  050%=      5-min Rain = 0
KHE1 200348Z 15012KT 16/06 A2983 RMK A01 T01610058  RH  050%=      5-min Rain = 0
KHE1 200349Z 15012KT 16/06 A2983 RMK A01 T01610058  RH  050%=      5-min Rain = 0
KHE1 200350Z 15012KT 16/06 A2983 RMK A01 T01620059  RH  050%=      5-min Rain = 0
KHE1 200351Z 15012KT 16/06 A2983 RMK A01 T01620058  RH  050%=      5-min Rain = 0
KHE1 200352Z 15012KT 16/06 A2983 RMK A01 T01620058  RH  050%=      5-min Rain = 0
KHE1 200353Z 15013KT 16/06 A2983 RMK A01 T01620059  RH  050%=      5-min Rain = 0
KHE1 200354Z 15014KT 16/06 A2983 RMK A01 T01630059  RH  050%=      5-min Rain = 0
KHE1 200355Z 15012KT 16/06 A2983 RMK A01 T01640058  RH  050%=      5-min Rain = 0
KHE1 200356Z 15013KT 17/06 A2983 RMK A01 T01650059  RH  049%=      5-min Rain = 0
KHE1 200357Z 16013KT 17/06 A2983 RMK A01 T01650059  RH  049%=      5-min Rain = 0
KHE1 200358Z 15013KT 17/06 A2983 RMK A01 T01650058  RH  049%=      5-min Rain = 0
KHE1 200359Z 15012KT 17/06 A2983 RMK A01 T01650058  RH  049%=      5-min Rain = 0
KHE1 200400Z 15013KT 17/06 A2983 RMK A01 T01650059  RH  049%=      5-min Rain = 0
KHE1 200401Z 15013KT 17/06 A2983 RMK A01 T01650059  RH  049%=      5-min Rain = 0
KHE1 200402Z 15013KT 17/06 A2983 RMK A01 T01650059  RH  049%=      5-min Rain = 0
KHE1 200403Z 15012KT 17/06 A2983 RMK A01 T01650059  RH  049%=      5-min Rain = 0
KHE1 200404Z 15012KT 17/06 A2983 RMK A01 T01650059  RH  050%=      5-min Rain = 0
KHE1 200405Z 15012KT 16/06 A2983 RMK A01 T01640059  RH  050%=      5-min Rain = 0
KHE1 200406Z 15012KT 16/06 A2983 RMK A01 T01630059  RH  050%=      5-min Rain = 0
KHE1 200407Z 15012KT 16/06 A2983 RMK A01 T01630059  RH  050%=      5-min Rain = 0
KHE1 200408Z 15012KT 16/06 A2983 RMK A01 T01620059  RH  051%=      5-min Rain = 0
KHE1 200409Z 15012KT 16/06 A2983 RMK A01 T01610060  RH  051%=      5-min Rain = 0
KHE1 200410Z 15013KT 16/06 A2983 RMK A01 T01600060  RH  051%=      5-min Rain = 0
KHE1 200411Z 15013KT 16/06 A2983 RMK A01 T01610060  RH  051%=      5-min Rain = 0
KHE1 200412Z 15012KT 16/06 A2983 RMK A01 T01620060  RH  051%=      5-min Rain = 0
KHE1 200413Z 15012KT 16/06 A2983 RMK A01 T01620060  RH  051%=      5-min Rain = 0
KHE1 200414Z 15012KT 16/06 A2983 RMK A01 T01620060  RH  051%=      5-min Rain = 0
KHE1 200415Z 15012G17KT 16/06 A2983 RMK A01 T01610060  RH  051%=      5-min Rain = 0
KHE1 200416Z 15013KT 16/06 A2983 RMK A01 T01610060  RH  051%=      5-min Rain = 0
KHE1 200417Z 15012KT 16/06 A2983 RMK A01 T01620060  RH  051%=      5-min Rain = 0
KHE1 200418Z 15012KT 16/06 A2983 RMK A01 T01630060  RH  051%=      5-min Rain = 0
KHE1 200419Z 15011KT 16/06 A2983 RMK A01 T01630060  RH  051%=      5-min Rain = 0
KHE1 200420Z 15013KT 16/06 A2983 RMK A01 T01630061  RH  051%=      5-min Rain = 0
KHE1 200421Z 15011KT 16/06 A2983 RMK A01 T01620061  RH  051%=      5-min Rain = 0
KHE1 200422Z 15012KT 16/06 A2983 RMK A01 T01620061  RH  051%=      5-min Rain = 0
KHE1 200423Z 15012KT 16/06 A2984 RMK A01 T01610061  RH  051%=      5-min Rain = 0
KHE1 200424Z 15012KT 16/06 A2984 RMK A01 T01620061  RH  051%=      5-min Rain = 0
KHE1 200425Z 15013KT 16/06 A2984 RMK A01 T01610061  RH  052%=      5-min Rain = 0
KHE1 200426Z 15012KT 16/06 A2984 RMK A01 T01610062  RH  052%=      5-min Rain = 0
KHE1 200427Z 15012KT 16/06 A2984 RMK A01 T01610061  RH  052%=      5-min Rain = 0
KHE1 200428Z 15012KT 16/06 A2984 RMK A01 T01610061  RH  052%=      5-min Rain = 0
KHE1 200429Z 15012KT 16/06 A2984 RMK A01 T01610062  RH  052%=      5-min Rain = 0
KHE1 200430Z 15012KT 16/06 A2984 RMK A01 T01610062  RH  052%=      5-min Rain = 0
KHE1 200431Z 15013KT 16/06 A2984 RMK A01 T01610062  RH  052%=      5-min Rain = 0
KHE1 200432Z 15013KT 16/06 A2984 RMK A01 T01610062  RH  052%=      5-min Rain = 0
KHE1 200433Z 15012KT 16/06 A2984 RMK A01 T01610062  RH  052%=      5-min Rain = 0
KHE1 200434Z 14013KT 16/06 A2984 RMK A01 T01600062  RH  052%=      5-min Rain = 0
KHE1 200435Z 14012KT 16/06 A2984 RMK A01 T01600063  RH  052%=      5-min Rain = 0
KHE1 200436Z 15012KT 16/06 A2984 RMK A01 T01600063  RH  053%=      5-min Rain = 0
KHE1 200437Z 15014KT 16/06 A2984 RMK A01 T01590063  RH  053%=      5-min Rain = 0
KHE1 200438Z 15012KT 16/06 A2984 RMK A01 T01590063  RH  053%=      5-min Rain = 0
KHE1 200439Z 15012KT 16/06 A2984 RMK A01 T01590064  RH  053%=      5-min Rain = 0
KHE1 200440Z 15012KT 16/06 A2984 RMK A01 T01590063  RH  053%=      5-min Rain = 0
KHE1 200441Z 15011KT 16/06 A2984 RMK A01 T01580064  RH  053%=      5-min Rain = 0
KHE1 200442Z 15012KT 16/06 A2984 RMK A01 T01580064  RH  054%=      5-min Rain = 0
KHE1 200443Z 15012KT 16/06 A2984 RMK A01 T01570064  RH  054%=      5-min Rain = 0
KHE1 200444Z 15013KT 16/06 A2984 RMK A01 T01570064  RH  054%=      5-min Rain = 0
KHE1 200445Z 15012KT 16/06 A2984 RMK A01 T01570064  RH  054%=      5-min Rain = 0
KHE1 200446Z 15012KT 16/06 A2984 RMK A01 T01570064  RH  054%=      5-min Rain = 0
KHE1 200447Z 15011KT 16/07 A2984 RMK A01 T01580065  RH  054%=      5-min Rain = 0
KHE1 200448Z 15012KT 16/07 A2984 RMK A01 T01580065  RH  054%=      5-min Rain = 0
KHE1 200449Z 15013KT 16/07 A2984 RMK A01 T01580065  RH  054%=      5-min Rain = 0
KHE1 200450Z 15012KT 16/07 A2984 RMK A01 T01590065  RH  054%=      5-min Rain = 0
KHE1 200451Z 15013KT 16/07 A2984 RMK A01 T01590066  RH  054%=      5-min Rain = 0
KHE1 200452Z 15013KT 16/07 A2984 RMK A01 T01600066  RH  054%=      5-min Rain = 0
KHE1 200453Z 15012KT 16/07 A2984 RMK A01 T01600066  RH  053%=      5-min Rain = 0
KHE1 200454Z 15013KT 16/07 A2984 RMK A01 T01600066  RH  054%=      5-min Rain = 0
KHE1 200455Z 15013KT 16/07 A2983 RMK A01 T01590066  RH  054%=      5-min Rain = 0
KHE1 200456Z 15014KT 16/07 A2983 RMK A01 T01600066  RH  054%=      5-min Rain = 0
KHE1 200457Z 15012KT 16/07 A2983 RMK A01 T01600067  RH  054%=      5-min Rain = 0
KHE1 200458Z 15013KT 16/07 A2983 RMK A01 T01600067  RH  054%=      5-min Rain = 0
KHE1 200459Z 15014KT 16/07 A2983 RMK A01 T01590067  RH  054%=      5-min Rain = 0
KHE1 200500Z 15013KT 16/07 A2983 RMK A01 T01590067  RH  054%=      5-min Rain = 0
KHE1 200501Z 15013KT 16/07 A2983 RMK A01 T01590067  RH  054%=      5-min Rain = 0
KHE1 200502Z 15013KT 16/07 A2983 RMK A01 T01600067  RH  054%=      5-min Rain = 0
KHE1 200503Z 15014KT 16/07 A2983 RMK A01 T01600067  RH  054%=      5-min Rain = 0
KHE1 200504Z 15013KT 16/07 A2983 RMK A01 T01610068  RH  054%=      5-min Rain = 0
KHE1 200505Z 15014KT 16/07 A2984 RMK A01 T01600068  RH  054%=      5-min Rain = 0
KHE1 200506Z 15015KT 16/07 A2984 RMK A01 T01600068  RH  054%=      5-min Rain = 0
KHE1 200507Z 15014KT 16/07 A2984 RMK A01 T01610068  RH  054%=      5-min Rain = 0
KHE1 200508Z 15014KT 16/07 A2984 RMK A01 T01620068  RH  054%=      5-min Rain = 0
KHE1 200509Z 15014KT 16/07 A2984 RMK A01 T01620068  RH  054%=      5-min Rain = 0
KHE1 200510Z 15014KT 16/07 A2984 RMK A01 T01620069  RH  054%=      5-min Rain = 0
KHE1 200511Z 15014KT 16/07 A2984 RMK A01 T01620069  RH  054%=      5-min Rain = 0
KHE1 200512Z 15013KT 16/07 A2984 RMK A01 T01620069  RH  054%=      5-min Rain = 0
KHE1 200513Z 15013KT 16/07 A2984 RMK A01 T01620069  RH  054%=      5-min Rain = 0
KHE1 200514Z 15014KT 16/07 A2984 RMK A01 T01620069  RH  054%=      5-min Rain = 0
KHE1 200515Z 15013KT 16/07 A2984 RMK A01 T01620069  RH  054%=      5-min Rain = 0
KHE1 200516Z 15014KT 16/07 A2984 RMK A01 T01620069  RH  054%=      5-min Rain = 0
KHE1 200517Z 15013KT 16/07 A2984 RMK A01 T01620069  RH  054%=      5-min Rain = 0
KHE1 200518Z 16013KT 16/07 A2984 RMK A01 T01610069  RH  054%=      5-min Rain = 0
KHE1 200519Z 15013KT 16/07 A2984 RMK A01 T01600069  RH  055%=      5-min Rain = 0
KHE1 200520Z 16013KT 16/07 A2984 RMK A01 T01590069  RH  055%=      5-min Rain = 0
KHE1 200521Z 15013KT 16/07 A2984 RMK A01 T01590070  RH  055%=      5-min Rain = 0
KHE1 200522Z 15013KT 16/07 A2984 RMK A01 T01590070  RH  055%=      5-min Rain = 0
KHE1 200523Z 16014KT 16/07 A2983 RMK A01 T01600070  RH  055%=      5-min Rain = 0
KHE1 200524Z 15013KT 16/07 A2984 RMK A01 T01600070  RH  055%=      5-min Rain = 0
KHE1 200525Z 15013KT 16/07 A2984 RMK A01 T01600070  RH  055%=      5-min Rain = 0
KHE1 200526Z 15012KT 16/07 A2983 RMK A01 T01590070  RH  055%=      5-min Rain = 0
KHE1 200527Z 15012KT 16/07 A2983 RMK A01 T01580070  RH  056%=      5-min Rain = 0
KHE1 200528Z 15013KT 16/07 A2983 RMK A01 T01580070  RH  056%=      5-min Rain = 0
KHE1 200529Z 15013KT 16/07 A2983 RMK A01 T01580070  RH  056%=      5-min Rain = 0
KHE1 200530Z 15013KT 16/07 A2983 RMK A01 T01580070  RH  056%=      5-min Rain = 0
KHE1 200531Z 15012KT 16/07 A2983 RMK A01 T01580071  RH  056%=      5-min Rain = 0
KHE1 200532Z 15013KT 16/07 A2983 RMK A01 T01580070  RH  056%=      5-min Rain = 0
KHE1 200533Z 16013KT 16/07 A2983 RMK A01 T01580071  RH  056%=      5-min Rain = 0
KHE1 200534Z 16012KT 16/07 A2984 RMK A01 T01580071  RH  056%=      5-min Rain = 0
KHE1 200535Z 16012KT 16/07 A2984 RMK A01 T01570071  RH  056%=      5-min Rain = 0
KHE1 200536Z 15012KT 16/07 A2984 RMK A01 T01570071  RH  057%=      5-min Rain = 0
KHE1 200537Z 16012KT 16/07 A2984 RMK A01 T01570071  RH  057%=      5-min Rain = 0
KHE1 200538Z 16013KT 16/07 A2983 RMK A01 T01570071  RH  057%=      5-min Rain = 0
KHE1 200539Z 16012KT 16/07 A2983 RMK A01 T01570071  RH  057%=      5-min Rain = 0
KHE1 200540Z 15012KT 16/07 A2983 RMK A01 T01570071  RH  057%=      5-min Rain = 0
KHE1 200541Z 16012KT 16/07 A2983 RMK A01 T01560071  RH  057%=      5-min Rain = 0
KHE1 200542Z 16012KT 16/07 A2983 RMK A01 T01550071  RH  057%=      5-min Rain = 0
KHE1 200543Z 16011KT 16/07 A2983 RMK A01 T01550071  RH  057%=      5-min Rain = 0
KHE1 200544Z 16011KT 16/07 A2983 RMK A01 T01550071  RH  058%=      5-min Rain = 0
KHE1 200545Z 15011KT 15/07 A2984 RMK A01 T01540071  RH  058%=      5-min Rain = 0
KHE1 200546Z 16012KT 15/07 A2984 RMK A01 T01540071  RH  058%=      5-min Rain = 0
KHE1 200547Z 16011KT 15/07 A2984 RMK A01 T01540072  RH  058%=      5-min Rain = 0
KHE1 200548Z 16011KT 15/07 A2984 RMK A01 T01530071  RH  058%=      5-min Rain = 0
KHE1 200549Z 16011KT 15/07 A2984 RMK A01 T01520072  RH  059%=      5-min Rain = 0
KHE1 200550Z 16011KT 15/07 A2984 RMK A01 T01520072  RH  059%=      5-min Rain = 0
KHE1 200551Z 15011KT 15/07 A2984 RMK A01 T01510072  RH  059%=      5-min Rain = 0
KHE1 200552Z 15011KT 15/07 A2984 RMK A01 T01510072  RH  059%=      5-min Rain = 0
KHE1 200553Z 15011KT 15/07 A2983 RMK A01 T01500072  RH  059%=      5-min Rain = 0
KHE1 200554Z 15010KT 15/07 A2983 RMK A01 T01500072  RH  060%=      5-min Rain = 0
KHE1 200555Z 15011KT 15/07 A2983 RMK A01 T01490072  RH  060%=      5-min Rain = 0
KHE1 200556Z 15011KT 15/07 A2983 RMK A01 T01490072  RH  060%=      5-min Rain = 0
KHE1 200557Z 15011KT 15/07 A2983 RMK A01 T01480072  RH  060%=      5-min Rain = 0
KHE1 200558Z 15011KT 15/07 A2983 RMK A01 T01480072  RH  060%=      5-min Rain = 0
KHE1 200559Z 15011KT 15/07 A2983 RMK A01 T01470072  RH  061%=      5-min Rain = 0

Page generated in 0.1254 seconds.